Wetterdaten: Donnerstag, 12.10.2017
Datum Zeit Temp. Aussen Temp. o. S. +5cm Feuchte Auss BlattFeu 1 Luftdruck Regen Sonnenschein Regendauer Solar Windben Empfang
12.10.2017 00:00 15,4 C 15,0 C 13,3 C 81 % 0 lf 1013,3 hPa 0,0 l/m 0 min 0 min 0 W/m 25,1 km/h (4 Bft) 97,87 %
12.10.2017 00:02 15,4 C 15,0 C 13,3 C 81 % 0 lf 1013,3 hPa 0,0 l/m 0 min 0 min 0 W/m 20,9 km/h (4 Bft) 100,00 %
12.10.2017 00:04 15,4 C 15,0 C 13,3 C 81 % 0 lf 1013,3 hPa 0,0 l/m 0 min 0 min 0 W/m 14,6 km/h (3 Bft) 97,87 %
12.10.2017 00:07 15,4 C 15,0 C 13,3 C 81 % 0 lf 1013,2 hPa 0,0 l/m 0 min 0 min 0 W/m 16,7 km/h (3 Bft) 100,00 %
12.10.2017 00:08 15,3 C 15,0 C 13,3 C 81 % 0 lf 1013,2 hPa 0,0 l/m 0 min 0 min 0 W/m 14,6 km/h (3 Bft) 100,00 %
12.10.2017 00:10 15,3 C 14,4 C 13,3 C 81 % 0 lf 1013,1 hPa 0,0 l/m 0 min 0 min 0 W/m 14,6 km/h (3 Bft) 100,00 %
12.10.2017 00:12 15,3 C 14,4 C 13,3 C 82 % 0 lf 1013,2 hPa 0,0 l/m 0 min 0 min 0 W/m 18,8 km/h (3 Bft) 100,00 %
12.10.2017 00:14 15,3 C 15,0 C 13,3 C 82 % 0 lf 1013,2 hPa 0,0 l/m 0 min 0 min 0 W/m 18,8 km/h (3 Bft) 100,00 %
12.10.2017 00:16 15,3 C 15,0 C 13,3 C 82 % 0 lf 1013,2 hPa 0,0 l/m 0 min 0 min 0 W/m 23,0 km/h (4 Bft) 97,87 %
12.10.2017 00:18 15,3 C 15,0 C 13,3 C 82 % 0 lf 1013,2 hPa 0,0 l/m 0 min 0 min 0 W/m 23,0 km/h (4 Bft) 100,00 %
12.10.2017 00:20 15,3 C 14,4 C 13,3 C 82 % 0 lf 1013,2 hPa 0,0 l/m 0 min 0 min 0 W/m 18,8 km/h (3 Bft) 97,87 %
12.10.2017 00:22 15,2 C 15,0 C 13,3 C 82 % 0 lf 1013,2 hPa 0,0 l/m 0 min 0 min 0 W/m 20,9 km/h (4 Bft) 100,00 %
12.10.2017 00:24 15,2 C 14,4 C 13,3 C 82 % 0 lf 1013,2 hPa 0,0 l/m 0 min 0 min 0 W/m 20,9 km/h (4 Bft) 97,87 %
12.10.2017 00:26 15,2 C 14,4 C 13,3 C 82 % 0 lf 1013,2 hPa 0,0 l/m 0 min 0 min 0 W/m 14,6 km/h (3 Bft) 100,00 %
12.10.2017 00:28 15,2 C 14,4 C 12,8 C 82 % 0 lf 1013,2 hPa 0,0 l/m 0 min 0 min 0 W/m 14,6 km/h (3 Bft) 100,00 %
12.10.2017 00:30 15,2 C 14,4 C 13,3 C 82 % 0 lf 1013,2 hPa 0,0 l/m 0 min 0 min 0 W/m 25,1 km/h (4 Bft) 95,74 %
12.10.2017 00:32 15,2 C 15,0 C 13,3 C 82 % 0 lf 1013,2 hPa 0,0 l/m 0 min 0 min 0 W/m 20,9 km/h (4 Bft) 100,00 %
12.10.2017 00:34 15,2 C 15,0 C 13,3 C 82 % 0 lf 1013,2 hPa 0,0 l/m 0 min 0 min 0 W/m 16,7 km/h (3 Bft) 95,65 %
12.10.2017 00:36 15,2 C 15,0 C 13,3 C 82 % 0 lf 1013,2 hPa 0,0 l/m 0 min 0 min 0 W/m 23,0 km/h (4 Bft) 97,87 %
12.10.2017 00:38 15,2 C 15,0 C 13,3 C 82 % 0 lf 1013,2 hPa 0,0 l/m 0 min 0 min 0 W/m 16,7 km/h (3 Bft) 100,00 %
12.10.2017 00:40 15,2 C 15,0 C 13,3 C 82 % 0 lf 1013,1 hPa 0,0 l/m 0 min 0 min 0 W/m 18,8 km/h (3 Bft) 97,87 %
12.10.2017 00:42 15,2 C 15,0 C 13,3 C 83 % 0 lf 1013,1 hPa 0,0 l/m 0 min 0 min 0 W/m 16,7 km/h (3 Bft) 95,74 %
12.10.2017 00:44 15,2 C 15,0 C 13,3 C 83 % 0 lf 1013,0 hPa 0,0 l/m 0 min 0 min 0 W/m 23,0 km/h (4 Bft) 100,00 %
12.10.2017 00:46 15,2 C 15,0 C 13,3 C 83 % 0 lf 1013,0 hPa 0,0 l/m 0 min 0 min 0 W/m 14,6 km/h (3 Bft) 100,00 %
12.10.2017 00:48 15,2 C 15,0 C 13,3 C 83 % 0 lf 1013,1 hPa 0,0 l/m 0 min 0 min 0 W/m 23,0 km/h (4 Bft) 100,00 %
12.10.2017 00:50 15,2 C 15,0 C 13,3 C 83 % 0 lf 1013,0 hPa 0,0 l/m 0 min 0 min 0 W/m 16,7 km/h (3 Bft) 95,74 %
12.10.2017 00:52 15,2 C 15,0 C 13,3 C 83 % 0 lf 1013,0 hPa 0,0 l/m 0 min 0 min 0 W/m 23,0 km/h (4 Bft) 95,74 %
12.10.2017 00:54 15,2 C 15,0 C 13,3 C 83 % 0 lf 1012,9 hPa 0,0 l/m 0 min 0 min 0 W/m 16,7 km/h (3 Bft) 97,87 %
12.10.2017 00:56 15,2 C 15,0 C 13,3 C 83 % 0 lf 1012,9 hPa 0,0 l/m 0 min 0 min 0 W/m 20,9 km/h (4 Bft) 97,87 %
12.10.2017 00:58 15,2 C 15,0 C 13,3 C 83 % 0 lf 1013,0 hPa 0,0 l/m 0 min 0 min 0 W/m 16,7 km/h (3 Bft) 93,48 %
12.10.2017 01:00 15,2 C 15,0 C 13,3 C 83 % 0 lf 1013,1 hPa 0,0 l/m 0 min 0 min 0 W/m 18,8 km/h (3 Bft) 93,62 %
12.10.2017 01:02 15,2 C 15,0 C 13,3 C 83 % 0 lf 1013,1 hPa 0,0 l/m 0 min 0 min 0 W/m 16,7 km/h (3 Bft) 91,49 %
12.10.2017 01:04 15,2 C 15,0 C 13,9 C 83 % 0 lf 1013,0 hPa 0,0 l/m 0 min 0 min 0 W/m 23,0 km/h (4 Bft) 91,49 %
12.10.2017 01:06 15,2 C 15,0 C 13,9 C 83 % 0 lf 1013,1 hPa 0,0 l/m 0 min 0 min 0 W/m 18,8 km/h (3 Bft) 89,36 %
12.10.2017 01:08 15,2 C 15,0 C 13,9 C 83 % 0 lf 1012,9 hPa 0,0 l/m 0 min 0 min 0 W/m 18,8 km/h (3 Bft) 91,49 %
12.10.2017 01:10 15,2 C 15,0 C 13,9 C 83 % 0 lf 1013,0 hPa 0,0 l/m 0 min 0 min 0 W/m 20,9 km/h (4 Bft) 93,48 %
12.10.2017 01:12 15,2 C 15,0 C 13,9 C 83 % 0 lf 1012,9 hPa 0,0 l/m 0 min 0 min 0 W/m 14,6 km/h (3 Bft) 93,62 %
12.10.2017 01:14 15,2 C 15,0 C 13,9 C 83 % 0 lf 1012,8 hPa 0,0 l/m 0 min 0 min 0 W/m 18,8 km/h (3 Bft) 91,49 %
12.10.2017 01:16 15,3 C 15,0 C 13,9 C 83 % 0 lf 1012,8 hPa 0,0 l/m 0 min 0 min 0 W/m 16,7 km/h (3 Bft) 93,62 %
12.10.2017 01:18 15,3 C 15,0 C 13,9 C 83 % 0 lf 1012,7 hPa 0,0 l/m 0 min 0 min 0 W/m 20,9 km/h (4 Bft) 93,62 %
12.10.2017 01:20 15,3 C 15,0 C 13,9 C 83 % 0 lf 1012,6 hPa 0,0 l/m 0 min 0 min 0 W/m 27,2 km/h (4 Bft) 91,49 %
12.10.2017 01:22 15,3 C 15,0 C 13,9 C 83 % 0 lf 1012,6 hPa 0,0 l/m 0 min 0 min 0 W/m 20,9 km/h (4 Bft) 93,48 %
12.10.2017 01:24 15,3 C 15,0 C 13,9 C 83 % 0 lf 1012,7 hPa 0,0 l/m 0 min 0 min 0 W/m 25,1 km/h (4 Bft) 91,49 %
12.10.2017 01:26 15,3 C 15,0 C 13,9 C 83 % 0 lf 1012,7 hPa 0,0 l/m 0 min 0 min 0 W/m 29,3 km/h (5 Bft) 91,49 %
12.10.2017 01:28 15,3 C 15,0 C 13,9 C 83 % 0 lf 1012,8 hPa 0,0 l/m 0 min 0 min 0 W/m 27,2 km/h (4 Bft) 93,62 %
12.10.2017 01:30 15,4 C 15,0 C 13,9 C 83 % 0 lf 1012,7 hPa 0,0 l/m 0 min 0 min 0 W/m 29,3 km/h (5 Bft) 95,74 %
12.10.2017 01:32 15,4 C 15,6 C 13,9 C 83 % 0 lf 1012,7 hPa 0,0 l/m 0 min 0 min 0 W/m 25,1 km/h (4 Bft) 95,74 %
12.10.2017 01:34 15,4 C 15,6 C 13,9 C 83 % 0 lf 1012,7 hPa 0,0 l/m 0 min 0 min 0 W/m 29,3 km/h (5 Bft) 97,83 %
12.10.2017 01:36 15,4 C 15,6 C 13,9 C 83 % 0 lf 1012,7 hPa 0,0 l/m 0 min 0 min 0 W/m 25,1 km/h (4 Bft) 93,62 %
12.10.2017 01:38 15,4 C 15,6 C 13,9 C 83 % 0 lf 1012,6 hPa 0,0 l/m 0 min 0 min 0 W/m 29,3 km/h (5 Bft) 93,62 %
12.10.2017 01:40 15,5 C 15,6 C 13,9 C 83 % 0 lf 1012,6 hPa 0,0 l/m 0 min 0 min 0 W/m 25,1 km/h (4 Bft) 97,87 %
12.10.2017 01:42 15,5 C 15,6 C 13,9 C 83 % 0 lf 1012,7 hPa 0,0 l/m 0 min 0 min 0 W/m 33,5 km/h (5 Bft) 93,62 %
12.10.2017 01:44 15,5 C 15,6 C 13,9 C 83 % 0 lf 1012,7 hPa 0,0 l/m 0 min 0 min 0 W/m 29,3 km/h (5 Bft) 97,83 %
12.10.2017 01:46 15,6 C 15,6 C 13,9 C 83 % 0 lf 1012,7 hPa 0,0 l/m 0 min 0 min 0 W/m 31,4 km/h (5 Bft) 100,00 %
12.10.2017 01:48 15,6 C 15,6 C 13,9 C 83 % 0 lf 1012,7 hPa 0,0 l/m 0 min 0 min 0 W/m 25,1 km/h (4 Bft) 97,87 %
12.10.2017 01:50 15,6 C 15,6 C 13,9 C 83 % 0 lf 1012,7 hPa 0,0 l/m 0 min 0 min 0 W/m 39,7 km/h (6 Bft) 100,00 %
12.10.2017 01:52 15,6 C 15,6 C 13,9 C 82 % 0 lf 1012,8 hPa 0,0 l/m 0 min 0 min 0 W/m 27,2 km/h (4 Bft) 97,87 %
12.10.2017 01:54 15,6 C 15,6 C 13,9 C 83 % 2 lf 1012,8 hPa 0,0 l/m 0 min 0 min 0 W/m 37,7 km/h (5 Bft) 95,74 %
12.10.2017 01:56 15,6 C 15,6 C 13,9 C 82 % 0 lf 1012,7 hPa 0,0 l/m 0 min 0 min 0 W/m 31,4 km/h (5 Bft) 100,00 %
12.10.2017 01:58 15,7 C 15,6 C 13,9 C 83 % 0 lf 1012,8 hPa 0,0 l/m 0 min 0 min 0 W/m 35,6 km/h (5 Bft) 97,87 %
12.10.2017 02:00 15,7 C 15,6 C 13,9 C 83 % 0 lf 1012,7 hPa 0,0 l/m 0 min 0 min 0 W/m 35,6 km/h (5 Bft) 100,00 %
12.10.2017 02:02 15,7 C 15,6 C 13,9 C 83 % 0 lf 1012,7 hPa 0,0 l/m 0 min 0 min 0 W/m 29,3 km/h (5 Bft) 100,00 %
12.10.2017 02:04 15,7 C 15,6 C 13,9 C 83 % 0 lf 1012,6 hPa 0,0 l/m 0 min 0 min 0 W/m 27,2 km/h (4 Bft) 100,00 %
12.10.2017 02:06 15,7 C 15,6 C 13,9 C 83 % 0 lf 1012,7 hPa 0,0 l/m 0 min 0 min 0 W/m 25,1 km/h (4 Bft) 100,00 %
12.10.2017 02:08 15,7 C 15,6 C 13,9 C 83 % 0 lf 1012,7 hPa 0,0 l/m 0 min 0 min 0 W/m 25,1 km/h (4 Bft) 100,00 %
12.10.2017 02:10 15,6 C 15,6 C 13,9 C 83 % 0 lf 1012,7 hPa 0,0 l/m 0 min 0 min 0 W/m 25,1 km/h (4 Bft) 100,00 %
12.10.2017 02:12 15,6 C 15,6 C 13,9 C 83 % 0 lf 1012,6 hPa 0,0 l/m 0 min 0 min 0 W/m 35,6 km/h (5 Bft) 97,87 %
12.10.2017 02:14 15,7 C 15,6 C 13,9 C 83 % 0 lf 1012,7 hPa 0,0 l/m 0 min 0 min 0 W/m 31,4 km/h (5 Bft) 97,87 %
12.10.2017 02:16 15,7 C 15,6 C 13,9 C 83 % 0 lf 1012,7 hPa 0,0 l/m 0 min 0 min 0 W/m 25,1 km/h (4 Bft) 95,74 %
12.10.2017 02:18 15,7 C 15,6 C 13,9 C 83 % 0 lf 1012,6 hPa 0,0 l/m 0 min 0 min 0 W/m 18,8 km/h (3 Bft) 97,83 %
12.10.2017 02:20 15,7 C 15,6 C 13,9 C 83 % 0 lf 1012,6 hPa 0,0 l/m 0 min 0 min 0 W/m 31,4 km/h (5 Bft) 95,74 %
12.10.2017 02:22 15,6 C 15,6 C 13,9 C 83 % 0 lf 1012,7 hPa 0,0 l/m 0 min 0 min 0 W/m 27,2 km/h (4 Bft) 95,74 %
12.10.2017 02:24 15,7 C 15,6 C 13,9 C 83 % 0 lf 1012,7 hPa 0,0 l/m 0 min 0 min 0 W/m 23,0 km/h (4 Bft) 97,87 %
12.10.2017 02:26 15,7 C 15,6 C 13,9 C 83 % 0 lf 1012,7 hPa 0,0 l/m 0 min 0 min 0 W/m 31,4 km/h (5 Bft) 97,87 %
12.10.2017 02:28 15,7 C 15,6 C 13,9 C 83 % 0 lf 1012,6 hPa 0,0 l/m 0 min 0 min 0 W/m 27,2 km/h (4 Bft) 97,87 %
12.10.2017 02:30 15,7 C 15,6 C 13,9 C 83 % 0 lf 1012,6 hPa 0,0 l/m 0 min 0 min 0 W/m 18,8 km/h (3 Bft) 95,65 %
12.10.2017 02:32 15,7 C 15,6 C 13,9 C 83 % 0 lf 1012,7 hPa 0,0 l/m 0 min 0 min 0 W/m 29,3 km/h (5 Bft) 91,49 %
12.10.2017 02:34 15,6 C 15,6 C 13,9 C 83 % 0 lf 1012,6 hPa 0,0 l/m 0 min 0 min 0 W/m 33,5 km/h (5 Bft) 97,87 %
12.10.2017 02:36 15,6 C 15,6 C 13,9 C 83 % 0 lf 1012,6 hPa 0,0 l/m 0 min 0 min 0 W/m 20,9 km/h (4 Bft) 97,87 %
12.10.2017 02:38 15,6 C 15,6 C 13,9 C 83 % 0 lf 1012,6 hPa 0,0 l/m 0 min 0 min 0 W/m 18,8 km/h (3 Bft) 97,87 %
12.10.2017 02:40 15,7 C 15,6 C 13,9 C 83 % 0 lf 1012,6 hPa 0,0 l/m 0 min 0 min 0 W/m 20,9 km/h (4 Bft) 97,87 %
12.10.2017 02:42 15,7 C 15,6 C 13,9 C 83 % 0 lf 1012,6 hPa 0,0 l/m 0 min 0 min 0 W/m 25,1 km/h (4 Bft) 97,83 %
12.10.2017 02:44 15,7 C 15,6 C 13,9 C 83 % 0 lf 1012,6 hPa 0,0 l/m 0 min 0 min 0 W/m 18,8 km/h (3 Bft) 97,87 %
12.10.2017 02:46 15,7 C 15,6 C 13,9 C 83 % 0 lf 1012,6 hPa 0,0 l/m 0 min 0 min 0 W/m 27,2 km/h (4 Bft) 95,74 %
12.10.2017 02:48 15,7 C 15,6 C 14,4 C 83 % 0 lf 1012,5 hPa 0,0 l/m 0 min 0 min 0 W/m 25,1 km/h (4 Bft) 95,74 %
12.10.2017 02:50 15,7 C 15,6 C 14,4 C 83 % 0 lf 1012,5 hPa 0,0 l/m 0 min 0 min 0 W/m 18,8 km/h (3 Bft) 93,62 %
12.10.2017 02:52 15,7 C 15,6 C 14,4 C 83 % 0 lf 1012,6 hPa 0,0 l/m 0 min 0 min 0 W/m 18,8 km/h (3 Bft) 97,87 %
12.10.2017 02:54 15,7 C 15,6 C 13,9 C 83 % 0 lf 1012,6 hPa 0,0 l/m 0 min 0 min 0 W/m 25,1 km/h (4 Bft) 95,65 %
12.10.2017 02:56 15,7 C 15,6 C 14,4 C 83 % 0 lf 1012,6 hPa 0,0 l/m 0 min 0 min 0 W/m 20,9 km/h (4 Bft) 93,62 %
12.10.2017 02:58 15,7 C 15,6 C 14,4 C 83 % 0 lf 1012,7 hPa 0,0 l/m 0 min 0 min 0 W/m 33,5 km/h (5 Bft) 95,74 %
12.10.2017 03:00 15,7 C 15,6 C 13,9 C 83 % 2 lf 1012,6 hPa 0,0 l/m 0 min 0 min 0 W/m 27,2 km/h (4 Bft) 95,74 %
12.10.2017 03:02 15,7 C 15,0 C 13,9 C 83 % 0 lf 1012,6 hPa 0,0 l/m 0 min 0 min 0 W/m 25,1 km/h (4 Bft) 95,74 %
12.10.2017 03:04 15,7 C 15,0 C 13,3 C 84 % 1 lf 1012,7 hPa 0,0 l/m 0 min 0 min 0 W/m 29,3 km/h (5 Bft) 95,74 %
12.10.2017 03:06 15,7 C 15,0 C 13,3 C 84 % 3 lf 1012,8 hPa 0,0 l/m 0 min 0 min 0 W/m 23,0 km/h (4 Bft) 95,65 %
12.10.2017 03:08 15,7 C 15,0 C 13,3 C 84 % 13 lf 1012,6 hPa 0,0 l/m 0 min 2 min 0 W/m 31,4 km/h (5 Bft) 93,62 %
12.10.2017 03:10 15,7 C 15,0 C 12,8 C 84 % 15 lf 1012,6 hPa 0,0 l/m 0 min 2 min 0 W/m 39,7 km/h (6 Bft) 95,74 %
12.10.2017 03:12 15,7 C 14,4 C 12,8 C 85 % 15 lf 1012,6 hPa 0,0 l/m 0 min 0 min 0 W/m 33,5 km/h (5 Bft) 93,62 %
12.10.2017 03:14 15,7 C 14,4 C 12,8 C 85 % 15 lf 1012,6 hPa 0,0 l/m 0 min 0 min 0 W/m 23,0 km/h (4 Bft) 97,87 %
12.10.2017 03:16 15,6 C 14,4 C 12,8 C 85 % 15 lf 1012,6 hPa 0,0 l/m 0 min 0 min 0 W/m 25,1 km/h (4 Bft) 97,87 %
12.10.2017 03:18 15,6 C 14,4 C 12,8 C 86 % 15 lf 1012,6 hPa 0,0 l/m 0 min 0 min 0 W/m 35,6 km/h (5 Bft) 97,83 %
12.10.2017 03:20 15,6 C 14,4 C 12,8 C 86 % 15 lf 1012,5 hPa 0,0 l/m 0 min 0 min 0 W/m 27,2 km/h (4 Bft) 95,74 %
12.10.2017 03:22 15,5 C 14,4 C 12,8 C 86 % 14 lf 1012,5 hPa 0,0 l/m 0 min 2 min 0 W/m 29,3 km/h (5 Bft) 97,87 %
12.10.2017 03:24 15,5 C 14,4 C 12,8 C 86 % 14 lf 1012,6 hPa 0,0 l/m 0 min 2 min 0 W/m 31,4 km/h (5 Bft) 97,87 %
12.10.2017 03:26 15,4 C 14,4 C 12,8 C 87 % 13 lf 1012,6 hPa 0,0 l/m 0 min 2 min 0 W/m 46,0 km/h (6 Bft) 97,87 %
12.10.2017 03:28 15,4 C 14,4 C 12,8 C 87 % 12 lf 1012,6 hPa 0,0 l/m 0 min 2 min 0 W/m 31,4 km/h (5 Bft) 95,65 %
12.10.2017 03:30 15,4 C 14,4 C 12,8 C 87 % 8 lf 1012,6 hPa 0,0 l/m 0 min 2 min 0 W/m 39,7 km/h (6 Bft) 97,87 %
12.10.2017 03:32 15,4 C 14,4 C 12,8 C 87 % 4 lf 1012,6 hPa 0,0 l/m 0 min 2 min 0 W/m 46,0 km/h (6 Bft) 100,00 %
12.10.2017 03:34 15,4 C 14,4 C 12,8 C 87 % 7 lf 1012,6 hPa 0,0 l/m 0 min 2 min 0 W/m 50,2 km/h (7 Bft) 100,00 %
12.10.2017 03:36 15,3 C 14,4 C 12,8 C 88 % 4 lf 1012,6 hPa 0,0 l/m 0 min 2 min 0 W/m 37,7 km/h (5 Bft) 100,00 %
12.10.2017 03:38 15,3 C 14,4 C 12,8 C 88 % 13 lf 1012,6 hPa 0,0 l/m 0 min 2 min 0 W/m 31,4 km/h (5 Bft) 95,74 %
12.10.2017 03:40 15,3 C 14,4 C 12,8 C 88 % 11 lf 1012,7 hPa 0,0 l/m 0 min 2 min 0 W/m 33,5 km/h (5 Bft) 95,74 %
12.10.2017 03:42 15,2 C 14,4 C 12,2 C 88 % 5 lf 1012,6 hPa 0,0 l/m 0 min 2 min 0 W/m 20,9 km/h (4 Bft) 95,65 %
12.10.2017 03:44 15,2 C 14,4 C 12,2 C 88 % 3 lf 1012,6 hPa 0,0 l/m 0 min 2 min 0 W/m 33,5 km/h (5 Bft) 95,74 %
12.10.2017 03:46 15,1 C 14,4 C 12,2 C 89 % 1 lf 1012,6 hPa 0,0 l/m 0 min 2 min 0 W/m 23,0 km/h (4 Bft) 95,74 %
12.10.2017 03:48 15,1 C 14,4 C 12,8 C 89 % 0 lf 1012,6 hPa 0,0 l/m 0 min 2 min 0 W/m 27,2 km/h (4 Bft) 95,74 %
12.10.2017 03:50 15,1 C 14,4 C 12,8 C 89 % 0 lf 1012,7 hPa 0,0 l/m 0 min 0 min 0 W/m 27,2 km/h (4 Bft) 93,62 %
12.10.2017 03:52 15,1 C 14,4 C 12,8 C 89 % 0 lf 1012,7 hPa 0,0 l/m 0 min 0 min 0 W/m 35,6 km/h (5 Bft) 95,65 %
12.10.2017 03:54 15,0 C 14,4 C 12,8 C 89 % 0 lf 1012,7 hPa 0,0 l/m 0 min 0 min 0 W/m 29,3 km/h (5 Bft) 95,74 %
12.10.2017 03:56 15,0 C 14,4 C 12,8 C 89 % 0 lf 1012,6 hPa 0,0 l/m 0 min 2 min 0 W/m 33,5 km/h (5 Bft) 95,74 %
12.10.2017 03:58 15,0 C 14,4 C 12,8 C 90 % 0 lf 1012,7 hPa 0,0 l/m 0 min 2 min 0 W/m 35,6 km/h (5 Bft) 95,74 %
12.10.2017 04:00 14,9 C 14,4 C 12,8 C 90 % 0 lf 1012,7 hPa 0,0 l/m 0 min 0 min 0 W/m 25,1 km/h (4 Bft) 93,62 %
12.10.2017 04:02 14,9 C 14,4 C 12,8 C 90 % 0 lf 1012,6 hPa 0,0 l/m 0 min 0 min 0 W/m 20,9 km/h (4 Bft) 100,00 %
12.10.2017 04:04 14,9 C 14,4 C 12,8 C 90 % 0 lf 1012,7 hPa 0,0 l/m 0 min 0 min 0 W/m 25,1 km/h (4 Bft) 100,00 %
12.10.2017 04:06 14,9 C 14,4 C 13,3 C 90 % 0 lf 1012,7 hPa 0,0 l/m 0 min 0 min 0 W/m 39,7 km/h (6 Bft) 95,74 %
12.10.2017 04:08 14,9 C 14,4 C 13,3 C 90 % 0 lf 1012,7 hPa 0,0 l/m 0 min 0 min 0 W/m 27,2 km/h (4 Bft) 95,74 %
12.10.2017 04:10 14,9 C 14,4 C 13,3 C 90 % 0 lf 1012,7 hPa 0,0 l/m 0 min 0 min 0 W/m 23,0 km/h (4 Bft) 93,62 %
12.10.2017 04:12 14,9 C 14,4 C 13,3 C 90 % 0 lf 1012,7 hPa 0,0 l/m 0 min 0 min 0 W/m 29,3 km/h (5 Bft) 95,74 %
12.10.2017 04:14 14,9 C 14,4 C 13,3 C 90 % 0 lf 1012,8 hPa 0,0 l/m 0 min 2 min 0 W/m 29,3 km/h (5 Bft) 95,74 %
12.10.2017 04:16 14,9 C 14,4 C 13,3 C 90 % 0 lf 1012,8 hPa 0,0 l/m 0 min 2 min 0 W/m 31,4 km/h (5 Bft) 95,65 %
12.10.2017 04:18 14,9 C 14,4 C 13,3 C 90 % 0 lf 1012,8 hPa 0,0 l/m 0 min 0 min 0 W/m 23,0 km/h (4 Bft) 93,62 %
12.10.2017 04:20 14,9 C 14,4 C 13,3 C 90 % 0 lf 1012,8 hPa 0,0 l/m 0 min 0 min 0 W/m 20,9 km/h (4 Bft) 95,74 %
12.10.2017 04:22 14,9 C 14,4 C 13,3 C 90 % 0 lf 1012,8 hPa 0,0 l/m 0 min 0 min 0 W/m 23,0 km/h (4 Bft) 89,36 %
12.10.2017 04:24 14,9 C 14,4 C 12,8 C 90 % 0 lf 1012,8 hPa 0,0 l/m 0 min 0 min 0 W/m 16,7 km/h (3 Bft) 95,74 %
12.10.2017 04:26 14,9 C 14,4 C 12,8 C 90 % 0 lf 1013,0 hPa 0,0 l/m 0 min 0 min 0 W/m 27,2 km/h (4 Bft) 95,74 %
12.10.2017 04:28 14,9 C 14,4 C 12,8 C 90 % 0 lf 1012,9 hPa 0,0 l/m 0 min 0 min 0 W/m 18,8 km/h (3 Bft) 95,65 %
12.10.2017 04:30 14,8 C 14,4 C 12,8 C 90 % 0 lf 1012,9 hPa 0,0 l/m 0 min 0 min 0 W/m 23,0 km/h (4 Bft) 97,87 %
12.10.2017 04:32 14,8 C 14,4 C 12,8 C 90 % 0 lf 1012,9 hPa 0,0 l/m 0 min 0 min 0 W/m 16,7 km/h (3 Bft) 97,87 %
12.10.2017 04:34 14,8 C 14,4 C 12,8 C 90 % 0 lf 1013,0 hPa 0,0 l/m 0 min 0 min 0 W/m 27,2 km/h (4 Bft) 100,00 %
12.10.2017 04:36 14,8 C 14,4 C 12,8 C 90 % 0 lf 1013,2 hPa 0,0 l/m 0 min 0 min 0 W/m 29,3 km/h (5 Bft) 100,00 %
12.10.2017 04:38 14,8 C 14,4 C 13,3 C 90 % 0 lf 1013,1 hPa 0,0 l/m 0 min 0 min 0 W/m 33,5 km/h (5 Bft) 97,87 %
12.10.2017 04:40 14,8 C 14,4 C 13,3 C 91 % 0 lf 1013,1 hPa 0,0 l/m 0 min 0 min 0 W/m 20,9 km/h (4 Bft) 100,00 %
12.10.2017 04:42 14,8 C 14,4 C 13,3 C 91 % 0 lf 1013,1 hPa 0,0 l/m 0 min 0 min 0 W/m 29,3 km/h (5 Bft) 97,87 %
12.10.2017 04:44 14,8 C 14,4 C 13,3 C 91 % 0 lf 1013,1 hPa 0,0 l/m 0 min 0 min 0 W/m 37,7 km/h (5 Bft) 97,87 %
12.10.2017 04:46 14,8 C 14,4 C 13,3 C 91 % 0 lf 1013,2 hPa 0,0 l/m 0 min 0 min 0 W/m 29,3 km/h (5 Bft) 100,00 %
12.10.2017 04:48 14,8 C 14,4 C 13,3 C 91 % 0 lf 1013,2 hPa 0,0 l/m 0 min 0 min 0 W/m 25,1 km/h (4 Bft) 100,00 %
12.10.2017 04:50 14,8 C 14,4 C 13,3 C 91 % 0 lf 1013,1 hPa 0,0 l/m 0 min 0 min 0 W/m 27,2 km/h (4 Bft) 97,87 %
12.10.2017 04:52 14,8 C 14,4 C 13,3 C 91 % 0 lf 1013,2 hPa 0,0 l/m 0 min 0 min 0 W/m 29,3 km/h (5 Bft) 100,00 %
12.10.2017 04:54 14,8 C 14,4 C 13,3 C 91 % 0 lf 1013,1 hPa 0,0 l/m 0 min 0 min 0 W/m 25,1 km/h (4 Bft) 97,87 %
12.10.2017 04:56 14,8 C 14,4 C 12,8 C 91 % 0 lf 1013,1 hPa 0,0 l/m 0 min 0 min 0 W/m 14,6 km/h (3 Bft) 95,74 %
12.10.2017 04:58 14,8 C 14,4 C 12,8 C 91 % 0 lf 1013,1 hPa 0,0 l/m 0 min 0 min 0 W/m 27,2 km/h (4 Bft) 97,87 %
12.10.2017 05:00 14,8 C 14,4 C 12,8 C 91 % 0 lf 1013,1 hPa 0,0 l/m 0 min 0 min 0 W/m 27,2 km/h (4 Bft) 97,87 %
12.10.2017 05:02 14,8 C 14,4 C 12,8 C 91 % 0 lf 1013,2 hPa 0,0 l/m 0 min 0 min 0 W/m 31,4 km/h (5 Bft) 91,49 %
12.10.2017 05:04 14,8 C 14,4 C 12,8 C 91 % 0 lf 1013,2 hPa 0,0 l/m 0 min 0 min 0 W/m 18,8 km/h (3 Bft) 97,83 %
12.10.2017 05:06 14,7 C 14,4 C 12,8 C 91 % 0 lf 1013,2 hPa 0,0 l/m 0 min 0 min 0 W/m 18,8 km/h (3 Bft) 97,87 %
12.10.2017 05:08 14,7 C 14,4 C 12,8 C 91 % 0 lf 1013,2 hPa 0,0 l/m 0 min 0 min 0 W/m 25,1 km/h (4 Bft) 97,87 %
12.10.2017 05:10 14,7 C 14,4 C 13,3 C 91 % 0 lf 1013,1 hPa 0,0 l/m 0 min 0 min 0 W/m 23,0 km/h (4 Bft) 97,87 %
12.10.2017 05:12 14,7 C 14,4 C 12,8 C 91 % 0 lf 1013,1 hPa 0,0 l/m 0 min 0 min 0 W/m 14,6 km/h (3 Bft) 95,74 %
12.10.2017 05:14 14,7 C 14,4 C 12,8 C 91 % 0 lf 1013,2 hPa 0,0 l/m 0 min 0 min 0 W/m 18,8 km/h (3 Bft) 97,83 %
12.10.2017 05:16 14,7 C 13,9 C 12,8 C 91 % 0 lf 1013,1 hPa 0,0 l/m 0 min 0 min 0 W/m 12,6 km/h (3 Bft) 95,74 %
12.10.2017 05:18 14,7 C 13,9 C 12,8 C 91 % 0 lf 1013,2 hPa 0,0 l/m 0 min 0 min 0 W/m 20,9 km/h (4 Bft) 97,87 %
12.10.2017 05:20 14,7 C 13,9 C 12,8 C 91 % 0 lf 1013,2 hPa 0,0 l/m 0 min 0 min 0 W/m 16,7 km/h (3 Bft) 97,87 %
12.10.2017 05:22 14,7 C 13,9 C 12,8 C 91 % 0 lf 1013,3 hPa 0,0 l/m 0 min 0 min 0 W/m 27,2 km/h (4 Bft) 95,74 %
12.10.2017 05:24 14,6 C 14,4 C 12,8 C 91 % 0 lf 1013,3 hPa 0,0 l/m 0 min 0 min 0 W/m 16,7 km/h (3 Bft) 97,87 %
12.10.2017 05:26 14,7 C 14,4 C 12,8 C 91 % 0 lf 1013,4 hPa 0,0 l/m 0 min 0 min 0 W/m 20,9 km/h (4 Bft) 97,83 %
12.10.2017 05:28 14,6 C 14,4 C 12,8 C 91 % 0 lf 1013,4 hPa 0,0 l/m 0 min 0 min 0 W/m 23,0 km/h (4 Bft) 97,87 %
12.10.2017 05:30 14,6 C 14,4 C 12,8 C 91 % 0 lf 1013,5 hPa 0,0 l/m 0 min 0 min 0 W/m 23,0 km/h (4 Bft) 97,87 %
12.10.2017 05:32 14,6 C 14,4 C 12,8 C 91 % 0 lf 1013,5 hPa 0,0 l/m 0 min 0 min 0 W/m 20,9 km/h (4 Bft) 100,00 %
12.10.2017 05:34 14,6 C 14,4 C 13,3 C 91 % 0 lf 1013,5 hPa 0,0 l/m 0 min 0 min 0 W/m 29,3 km/h (5 Bft) 100,00 %
12.10.2017 05:35 14,6 C 14,4 C 13,3 C 91 % 0 lf 1013,6 hPa 0,0 l/m 0 min 0 min 0 W/m 29,3 km/h (5 Bft) 100,00 %
12.10.2017 05:40 14,6 C 14,4 C 13,3 C 91 % 0 lf 1013,6 hPa 0,0 l/m 0 min 0 min 0 W/m 16,7 km/h (3 Bft) 100,00 %
12.10.2017 05:42 14,6 C 14,4 C 12,8 C 91 % 0 lf 1013,6 hPa 0,0 l/m 0 min 0 min 0 W/m 27,2 km/h (4 Bft) 97,87 %
12.10.2017 05:44 14,6 C 14,4 C 12,8 C 91 % 0 lf 1013,5 hPa 0,0 l/m 0 min 0 min 0 W/m 20,9 km/h (4 Bft) 100,00 %
12.10.2017 05:46 14,6 C 14,4 C 12,8 C 91 % 0 lf 1013,6 hPa 0,0 l/m 0 min 0 min 0 W/m 14,6 km/h (3 Bft) 100,00 %
12.10.2017 05:48 14,6 C 14,4 C 12,8 C 91 % 0 lf 1013,6 hPa 0,0 l/m 0 min 0 min 0 W/m 14,6 km/h (3 Bft) 100,00 %
12.10.2017 05:50 14,6 C 14,4 C 12,8 C 91 % 0 lf 1013,5 hPa 0,0 l/m 0 min 0 min 0 W/m 14,6 km/h (3 Bft) 100,00 %
12.10.2017 05:52 14,6 C 14,4 C 12,8 C 91 % 0 lf 1013,5 hPa 0,0 l/m 0 min 0 min 0 W/m 12,6 km/h (3 Bft) 100,00 %
12.10.2017 05:54 14,6 C 14,4 C 12,8 C 91 % 0 lf 1013,5 hPa 0,0 l/m 0 min 0 min 0 W/m 12,6 km/h (3 Bft) 97,87 %
12.10.2017 05:56 14,6 C 14,4 C 12,8 C 91 % 0 lf 1013,4 hPa 0,0 l/m 0 min 0 min 0 W/m 16,7 km/h (3 Bft) 97,87 %
12.10.2017 05:58 14,6 C 14,4 C 12,8 C 91 % 0 lf 1013,6 hPa 0,0 l/m 0 min 0 min 0 W/m 18,8 km/h (3 Bft) 97,87 %
12.10.2017 06:00 14,6 C 14,4 C 12,8 C 91 % 0 lf 1013,6 hPa 0,0 l/m 0 min 0 min 0 W/m 14,6 km/h (3 Bft) 95,65 %
12.10.2017 06:02 14,6 C 14,4 C 12,8 C 91 % 0 lf 1013,7 hPa 0,0 l/m 0 min 0 min 0 W/m 14,6 km/h (3 Bft) 95,74 %
12.10.2017 06:04 14,6 C 14,4 C 12,8 C 91 % 0 lf 1013,7 hPa 0,0 l/m 0 min 0 min 0 W/m 16,7 km/h (3 Bft) 95,74 %
12.10.2017 06:06 14,6 C 14,4 C 12,8 C 91 % 0 lf 1013,9 hPa 0,0 l/m 0 min 0 min 0 W/m 16,7 km/h (3 Bft) 97,87 %
12.10.2017 06:10 14,6 C 14,4 C 12,8 C 91 % 0 lf 1013,9 hPa 0,0 l/m 0 min 0 min 0 W/m 14,6 km/h (3 Bft) 97,03 %
12.10.2017 06:12 14,6 C 14,4 C 12,8 C 91 % 0 lf 1013,9 hPa 0,0 l/m 0 min 0 min 0 W/m 10,5 km/h (2 Bft) 95,74 %
12.10.2017 06:14 14,6 C 13,9 C 12,2 C 91 % 0 lf 1013,8 hPa 0,0 l/m 0 min 0 min 0 W/m 14,6 km/h (3 Bft) 97,87 %
12.10.2017 06:16 14,6 C 13,9 C 12,2 C 91 % 0 lf 1014,0 hPa 0,0 l/m 0 min 0 min 0 W/m 10,5 km/h (2 Bft) 97,87 %
12.10.2017 06:18 14,6 C 13,9 C 12,8 C 91 % 0 lf 1014,0 hPa 0,0 l/m 0 min 0 min 0 W/m 29,3 km/h (5 Bft) 97,87 %
12.10.2017 06:20 14,6 C 14,4 C 12,8 C 91 % 0 lf 1014,1 hPa 0,0 l/m 0 min 0 min 0 W/m 18,8 km/h (3 Bft) 97,83 %
12.10.2017 06:22 14,6 C 14,4 C 12,8 C 91 % 0 lf 1014,1 hPa 0,0 l/m 0 min 0 min 0 W/m 18,8 km/h (3 Bft) 97,87 %
12.10.2017 06:24 14,6 C 14,4 C 12,8 C 91 % 0 lf 1014,2 hPa 0,0 l/m 0 min 0 min 0 W/m 18,8 km/h (3 Bft) 93,62 %
12.10.2017 06:26 14,6 C 14,4 C 13,3 C 91 % 0 lf 1014,3 hPa 0,0 l/m 0 min 0 min 0 W/m 16,7 km/h (3 Bft) 95,74 %
12.10.2017 06:28 14,6 C 14,4 C 12,8 C 91 % 4 lf 1014,4 hPa 0,0 l/m 0 min 0 min 0 W/m 18,8 km/h (3 Bft) 97,87 %
12.10.2017 06:30 14,6 C 14,4 C 12,8 C 91 % 4 lf 1014,6 hPa 0,0 l/m 0 min 2 min 0 W/m 25,1 km/h (4 Bft) 93,62 %
12.10.2017 06:32 14,6 C 14,4 C 12,8 C 91 % 4 lf 1014,7 hPa 0,0 l/m 0 min 0 min 0 W/m 16,7 km/h (3 Bft) 93,48 %
12.10.2017 06:34 14,6 C 14,4 C 12,8 C 91 % 3 lf 1014,7 hPa 0,0 l/m 0 min 0 min 0 W/m 12,6 km/h (3 Bft) 93,62 %
12.10.2017 06:36 14,6 C 14,4 C 12,8 C 91 % 2 lf 1014,7 hPa 0,0 l/m 0 min 0 min 0 W/m 12,6 km/h (3 Bft) 93,62 %
12.10.2017 06:38 14,6 C 14,4 C 12,8 C 91 % 1 lf 1014,7 hPa 0,0 l/m 0 min 0 min 0 W/m 14,6 km/h (3 Bft) 91,49 %
12.10.2017 06:40 14,6 C 14,4 C 12,2 C 91 % 0 lf 1014,7 hPa 0,0 l/m 0 min 0 min 0 W/m 27,2 km/h (4 Bft) 87,23 %
12.10.2017 06:42 14,5 C 14,4 C 12,2 C 90 % 0 lf 1014,8 hPa 0,0 l/m 0 min 0 min 0 W/m 18,8 km/h (3 Bft) 93,62 %
12.10.2017 06:44 14,4 C 14,4 C 12,2 C 90 % 0 lf 1014,9 hPa 0,0 l/m 0 min 0 min 0 W/m 27,2 km/h (4 Bft) 93,48 %
12.10.2017 06:46 14,4 C 14,4 C 12,2 C 89 % 0 lf 1015,0 hPa 0,0 l/m 0 min 0 min 0 W/m 35,6 km/h (5 Bft) 93,62 %
12.10.2017 06:48 14,3 C 14,4 C 12,2 C 88 % 0 lf 1015,0 hPa 0,0 l/m 0 min 0 min 0 W/m 29,3 km/h (5 Bft) 93,62 %
12.10.2017 06:50 14,3 C 14,4 C 12,2 C 88 % 0 lf 1015,1 hPa 0,0 l/m 0 min 0 min 0 W/m 29,3 km/h (5 Bft) 93,62 %
12.10.2017 06:52 14,3 C 14,4 C 12,2 C 87 % 0 lf 1015,1 hPa 0,0 l/m 0 min 0 min 0 W/m 25,1 km/h (4 Bft) 91,49 %
12.10.2017 06:54 14,3 C 14,4 C 12,2 C 86 % 0 lf 1015,2 hPa 0,0 l/m 0 min 0 min 0 W/m 20,9 km/h (4 Bft) 89,36 %
12.10.2017 06:56 14,3 C 13,9 C 12,2 C 86 % 0 lf 1015,3 hPa 0,0 l/m 0 min 0 min 0 W/m 16,7 km/h (3 Bft) 93,48 %
12.10.2017 06:58 14,3 C 13,9 C 12,2 C 86 % 0 lf 1015,3 hPa 0,0 l/m 0 min 0 min 0 W/m 23,0 km/h (4 Bft) 93,62 %
12.10.2017 07:00 14,3 C 13,9 C 12,2 C 85 % 0 lf 1015,3 hPa 0,0 l/m 0 min 0 min 0 W/m 25,1 km/h (4 Bft) 93,62 %
12.10.2017 07:02 14,2 C 13,9 C 12,2 C 85 % 0 lf 1015,4 hPa 0,0 l/m 0 min 0 min 0 W/m 20,9 km/h (4 Bft) 91,49 %
12.10.2017 07:04 14,2 C 13,9 C 12,2 C 85 % 0 lf 1015,4 hPa 0,0 l/m 0 min 0 min 0 W/m 25,1 km/h (4 Bft) 91,49 %
12.10.2017 07:06 14,2 C 13,9 C 12,2 C 85 % 0 lf 1015,4 hPa 0,0 l/m 0 min 0 min 0 W/m 18,8 km/h (3 Bft) 95,65 %
12.10.2017 07:08 14,2 C 13,9 C 12,2 C 85 % 0 lf 1015,5 hPa 0,0 l/m 0 min 0 min 0 W/m 18,8 km/h (3 Bft) 93,62 %
12.10.2017 07:10 14,2 C 13,3 C 12,2 C 85 % 0 lf 1015,6 hPa 0,0 l/m 0 min 0 min 0 W/m 18,8 km/h (3 Bft) 91,49 %
12.10.2017 07:12 14,2 C 13,3 C 11,7 C 84 % 0 lf 1015,6 hPa 0,0 l/m 0 min 0 min 0 W/m 18,8 km/h (3 Bft) 89,36 %
12.10.2017 07:14 14,2 C 13,3 C 11,7 C 84 % 0 lf 1015,8 hPa 0,0 l/m 0 min 0 min 0 W/m 18,8 km/h (3 Bft) 93,62 %
12.10.2017 07:16 14,2 C 13,3 C 11,7 C 84 % 0 lf 1015,8 hPa 0,0 l/m 0 min 0 min 0 W/m 25,1 km/h (4 Bft) 93,62 %
12.10.2017 07:18 14,1 C 13,3 C 11,7 C 84 % 0 lf 1015,9 hPa 0,0 l/m 0 min 0 min 0 W/m 27,2 km/h (4 Bft) 95,74 %
12.10.2017 07:20 14,1 C 13,3 C 11,7 C 84 % 0 lf 1015,9 hPa 0,0 l/m 0 min 0 min 0 W/m 31,4 km/h (5 Bft) 95,83 %
12.10.2017 07:22 14,0 C 13,3 C 11,7 C 84 % 0 lf 1016,0 hPa 0,0 l/m 0 min 0 min 0 W/m 27,2 km/h (4 Bft) 93,62 %
12.10.2017 07:24 13,9 C 12,8 C 11,7 C 84 % 0 lf 1016,0 hPa 0,0 l/m 0 min 0 min 0 W/m 23,0 km/h (4 Bft) 100,00 %
12.10.2017 07:26 13,9 C 12,8 C 11,7 C 84 % 0 lf 1016,0 hPa 0,0 l/m 0 min 0 min 0 W/m 23,0 km/h (4 Bft) 100,00 %
12.10.2017 07:28 13,8 C 12,8 C 11,7 C 85 % 0 lf 1016,2 hPa 0,0 l/m 0 min 0 min 0 W/m 35,6 km/h (5 Bft) 100,00 %
12.10.2017 07:30 13,8 C 12,8 C 11,7 C 84 % 0 lf 1016,2 hPa 0,0 l/m 0 min 0 min 0 W/m 18,8 km/h (3 Bft) 100,00 %
12.10.2017 07:32 13,7 C 12,8 C 11,7 C 85 % 0 lf 1016,3 hPa 0,0 l/m 0 min 0 min 0 W/m 20,9 km/h (4 Bft) 100,00 %
12.10.2017 07:34 13,7 C 12,8 C 11,1 C 85 % 0 lf 1016,2 hPa 0,0 l/m 0 min 0 min 0 W/m 27,2 km/h (4 Bft) 100,00 %
12.10.2017 07:36 13,7 C 12,8 C 11,1 C 85 % 0 lf 1016,3 hPa 0,0 l/m 0 min 0 min 0 W/m 16,7 km/h (3 Bft) 100,00 %
12.10.2017 07:38 13,6 C 12,8 C 11,1 C 85 % 0 lf 1016,3 hPa 0,0 l/m 0 min 0 min 0 W/m 20,9 km/h (4 Bft) 95,74 %
12.10.2017 07:40 13,6 C 12,8 C 11,1 C 85 % 0 lf 1016,3 hPa 0,0 l/m 0 min 0 min 0 W/m 20,9 km/h (4 Bft) 95,74 %
12.10.2017 07:42 13,5 C 12,8 C 11,1 C 85 % 0 lf 1016,3 hPa 0,0 l/m 0 min 0 min 0 W/m 14,6 km/h (3 Bft) 100,00 %
12.10.2017 07:44 13,4 C 12,8 C 11,1 C 85 % 0 lf 1016,4 hPa 0,0 l/m 0 min 0 min 0 W/m 20,9 km/h (4 Bft) 100,00 %
12.10.2017 07:46 13,4 C 12,8 C 11,1 C 85 % 0 lf 1016,4 hPa 0,0 l/m 0 min 0 min 0 W/m 31,4 km/h (5 Bft) 97,14 %
12.10.2017 07:48 13,4 C 12,8 C 11,1 C 86 % 0 lf 1016,4 hPa 0,0 l/m 0 min 0 min 2 W/m 14,6 km/h (3 Bft) 96,77 %
12.10.2017 07:50 13,4 C 12,8 C 11,1 C 86 % 0 lf 1016,3 hPa 0,0 l/m 0 min 0 min 6 W/m 10,5 km/h (2 Bft) 97,87 %
12.10.2017 07:52 13,3 C 12,8 C 11,1 C 86 % 0 lf 1016,4 hPa 0,0 l/m 0 min 0 min 8 W/m 14,6 km/h (3 Bft) 100,00 %
12.10.2017 07:54 13,3 C 12,2 C 11,1 C 86 % 0 lf 1016,4 hPa 0,0 l/m 0 min 0 min 10 W/m 18,8 km/h (3 Bft) 100,00 %
12.10.2017 07:56 13,2 C 12,2 C 11,1 C 86 % 0 lf 1016,5 hPa 0,0 l/m 0 min 0 min 11 W/m 14,6 km/h (3 Bft) 100,00 %
12.10.2017 07:58 13,2 C 12,2 C 11,1 C 86 % 0 lf 1016,5 hPa 0,0 l/m 0 min 0 min 12 W/m 18,8 km/h (3 Bft) 100,00 %
12.10.2017 08:00 13,2 C 12,2 C 11,1 C 87 % 0 lf 1016,4 hPa 0,0 l/m 0 min 0 min 12 W/m 14,6 km/h (3 Bft) 100,00 %
12.10.2017 08:02 13,1 C 12,2 C 11,1 C 87 % 0 lf 1016,5 hPa 0,0 l/m 0 min 0 min 12 W/m 12,6 km/h (3 Bft) 95,74 %
12.10.2017 08:04 13,1 C 12,2 C 11,1 C 87 % 0 lf 1016,5 hPa 0,0 l/m 0 min 0 min 13 W/m 12,6 km/h (3 Bft) 100,00 %
12.10.2017 08:06 13,1 C 12,2 C 11,1 C 87 % 0 lf 1016,6 hPa 0,0 l/m 0 min 0 min 14 W/m 14,6 km/h (3 Bft) 100,00 %
12.10.2017 08:08 13,1 C 12,2 C 11,1 C 87 % 0 lf 1016,6 hPa 0,0 l/m 0 min 0 min 16 W/m 23,0 km/h (4 Bft) 100,00 %
12.10.2017 08:10 13,0 C 12,2 C 11,1 C 87 % 0 lf 1016,7 hPa 0,0 l/m 0 min 0 min 18 W/m 8,4 km/h (2 Bft) 100,00 %
12.10.2017 08:12 13,0 C 12,2 C 11,1 C 88 % 0 lf 1016,8 hPa 0,0 l/m 2 min 0 min 20 W/m 10,5 km/h (2 Bft) 100,00 %
12.10.2017 08:14 12,9 C 12,2 C 11,1 C 87 % 0 lf 1016,8 hPa 0,0 l/m 2 min 0 min 24 W/m 16,7 km/h (3 Bft) 100,00 %
12.10.2017 08:16 12,9 C 12,2 C 11,1 C 88 % 0 lf 1016,8 hPa 0,0 l/m 2 min 0 min 28 W/m 14,6 km/h (3 Bft) 100,00 %
12.10.2017 08:18 12,9 C 12,2 C 11,1 C 88 % 0 lf 1016,9 hPa 0,0 l/m 2 min 0 min 32 W/m 10,5 km/h (2 Bft) 100,00 %
12.10.2017 08:20 12,9 C 12,2 C 11,1 C 88 % 0 lf 1016,9 hPa 0,0 l/m 2 min 0 min 37 W/m 12,6 km/h (3 Bft) 100,00 %
12.10.2017 08:22 12,9 C 12,2 C 11,1 C 88 % 0 lf 1017,0 hPa 0,0 l/m 2 min 0 min 40 W/m 16,7 km/h (3 Bft) 97,87 %
12.10.2017 08:24 12,9 C 12,8 C 11,1 C 88 % 0 lf 1017,1 hPa 0,0 l/m 2 min 0 min 44 W/m 18,8 km/h (3 Bft) 100,00 %
12.10.2017 08:26 12,8 C 12,8 C 11,1 C 88 % 0 lf 1017,1 hPa 0,0 l/m 2 min 0 min 39 W/m 14,6 km/h (3 Bft) 100,00 %
12.10.2017 08:28 12,8 C 12,8 C 11,1 C 88 % 0 lf 1017,0 hPa 0,0 l/m 0 min 0 min 35 W/m 18,8 km/h (3 Bft) 97,87 %
12.10.2017 08:30 12,8 C 12,8 C 11,1 C 88 % 0 lf 1017,1 hPa 0,0 l/m 0 min 0 min 35 W/m 12,6 km/h (3 Bft) 100,00 %
12.10.2017 08:32 12,8 C 12,8 C 11,1 C 88 % 0 lf 1017,2 hPa 0,0 l/m 0 min 0 min 39 W/m 10,5 km/h (2 Bft) 97,87 %
12.10.2017 08:34 12,8 C 12,8 C 11,1 C 88 % 0 lf 1017,3 hPa 0,0 l/m 0 min 0 min 42 W/m 12,6 km/h (3 Bft) 100,00 %
12.10.2017 08:36 12,8 C 12,8 C 11,1 C 88 % 0 lf 1017,3 hPa 0,0 l/m 0 min 0 min 45 W/m 16,7 km/h (3 Bft) 93,62 %
12.10.2017 08:38 12,8 C 12,8 C 11,1 C 88 % 0 lf 1017,3 hPa 0,0 l/m 0 min 0 min 49 W/m 10,5 km/h (2 Bft) 95,65 %
12.10.2017 08:40 12,8 C 12,8 C 11,1 C 88 % 0 lf 1017,3 hPa 0,0 l/m 0 min 0 min 53 W/m 10,5 km/h (2 Bft) 100,00 %
12.10.2017 08:42 12,7 C 12,8 C 11,1 C 89 % 0 lf 1017,4 hPa 0,0 l/m 0 min 0 min 54 W/m 12,6 km/h (3 Bft) 97,87 %
12.10.2017 08:44 12,7 C 12,8 C 11,1 C 89 % 0 lf 1017,5 hPa 0,0 l/m 0 min 0 min 54 W/m 8,4 km/h (2 Bft) 97,87 %
12.10.2017 08:46 12,7 C 12,8 C 11,1 C 88 % 0 lf 1017,5 hPa 0,0 l/m 0 min 0 min 54 W/m 18,8 km/h (3 Bft) 97,87 %
12.10.2017 08:48 12,7 C 12,8 C 11,1 C 89 % 0 lf 1017,5 hPa 0,0 l/m 0 min 0 min 55 W/m 18,8 km/h (3 Bft) 97,87 %
12.10.2017 08:50 12,7 C 12,8 C 11,1 C 89 % 0 lf 1017,5 hPa 0,0 l/m 0 min 0 min 60 W/m 23,0 km/h (4 Bft) 97,83 %
12.10.2017 08:52 12,7 C 12,8 C 11,1 C 89 % 0 lf 1017,6 hPa 0,0 l/m 0 min 0 min 67 W/m 18,8 km/h (3 Bft) 97,87 %
12.10.2017 08:54 12,7 C 12,8 C 11,1 C 89 % 0 lf 1017,6 hPa 0,0 l/m 2 min 0 min 82 W/m 16,7 km/h (3 Bft) 95,74 %
12.10.2017 08:56 12,7 C 12,8 C 11,7 C 89 % 0 lf 1017,6 hPa 0,0 l/m 2 min 0 min 93 W/m 14,6 km/h (3 Bft) 97,87 %
12.10.2017 08:58 12,7 C 13,3 C 11,7 C 89 % 0 lf 1017,6 hPa 0,0 l/m 2 min 0 min 99 W/m 18,8 km/h (3 Bft) 97,87 %
12.10.2017 09:00 12,7 C 13,3 C 11,7 C 89 % 0 lf 1017,7 hPa 0,0 l/m 2 min 0 min 101 W/m 16,7 km/h (3 Bft) 95,74 %
12.10.2017 09:02 12,7 C 13,3 C 11,7 C 89 % 0 lf 1017,7 hPa 0,0 l/m 2 min 0 min 99 W/m 12,6 km/h (3 Bft) 97,83 %
12.10.2017 09:04 12,7 C 13,9 C 11,7 C 89 % 0 lf 1017,8 hPa 0,0 l/m 2 min 0 min 95 W/m 12,6 km/h (3 Bft) 97,87 %
12.10.2017 09:06 12,8 C 13,9 C 11,7 C 89 % 0 lf 1017,9 hPa 0,0 l/m 2 min 0 min 94 W/m 14,6 km/h (3 Bft) 97,87 %
12.10.2017 09:08 12,8 C 13,3 C 11,7 C 89 % 0 lf 1017,9 hPa 0,0 l/m 2 min 0 min 99 W/m 20,9 km/h (4 Bft) 97,87 %
12.10.2017 09:10 12,8 C 13,3 C 11,7 C 89 % 0 lf 1018,0 hPa 0,0 l/m 2 min 0 min 112 W/m 16,7 km/h (3 Bft) 95,74 %
12.10.2017 09:12 12,8 C 13,3 C 11,7 C 89 % 0 lf 1018,0 hPa 0,0 l/m 0 min 0 min 93 W/m 14,6 km/h (3 Bft) 93,62 %
12.10.2017 09:14 12,8 C 13,3 C 11,7 C 89 % 0 lf 1018,2 hPa 0,0 l/m 0 min 0 min 84 W/m 16,7 km/h (3 Bft) 100,00 %
12.10.2017 09:16 12,8 C 13,3 C 12,2 C 89 % 0 lf 1018,2 hPa 0,0 l/m 0 min 0 min 87 W/m 18,8 km/h (3 Bft) 95,74 %
12.10.2017 09:18 12,9 C 13,9 C 12,2 C 89 % 0 lf 1018,3 hPa 0,0 l/m 0 min 0 min 94 W/m 12,6 km/h (3 Bft) 97,87 %
12.10.2017 09:20 12,9 C 13,3 C 12,2 C 89 % 0 lf 1018,3 hPa 0,0 l/m 0 min 0 min 102 W/m 23,0 km/h (4 Bft) 95,74 %
12.10.2017 09:22 12,9 C 13,9 C 12,2 C 89 % 0 lf 1018,3 hPa 0,0 l/m 2 min 0 min 106 W/m 16,7 km/h (3 Bft) 93,62 %
12.10.2017 09:24 12,9 C 13,9 C 12,2 C 89 % 0 lf 1018,4 hPa 0,0 l/m 2 min 0 min 115 W/m 14,6 km/h (3 Bft) 95,74 %
12.10.2017 09:26 12,9 C 13,9 C 12,2 C 89 % 0 lf 1018,4 hPa 0,0 l/m 2 min 0 min 119 W/m 20,9 km/h (4 Bft) 95,65 %
12.10.2017 09:28 13,0 C 14,4 C 12,2 C 89 % 0 lf 1018,4 hPa 0,0 l/m 2 min 0 min 131 W/m 16,7 km/h (3 Bft) 91,49 %
12.10.2017 09:30 13,0 C 14,4 C 12,2 C 89 % 0 lf 1018,4 hPa 0,0 l/m 2 min 0 min 130 W/m 16,7 km/h (3 Bft) 93,62 %
12.10.2017 09:32 13,1 C 14,4 C 12,2 C 89 % 0 lf 1018,5 hPa 0,0 l/m 2 min 0 min 124 W/m 14,6 km/h (3 Bft) 95,74 %
12.10.2017 09:34 13,1 C 14,4 C 12,8 C 89 % 0 lf 1018,5 hPa 0,0 l/m 2 min 0 min 138 W/m 14,6 km/h (3 Bft) 95,74 %
12.10.2017 09:36 13,1 C 15,0 C 12,8 C 89 % 0 lf 1018,6 hPa 0,0 l/m 2 min 0 min 151 W/m 20,9 km/h (4 Bft) 93,48 %
12.10.2017 09:38 13,1 C 14,4 C 12,8 C 89 % 0 lf 1018,6 hPa 0,0 l/m 2 min 0 min 158 W/m 16,7 km/h (3 Bft) 91,49 %
12.10.2017 09:40 13,2 C 15,0 C 12,8 C 89 % 0 lf 1018,6 hPa 0,0 l/m 2 min 0 min 180 W/m 18,8 km/h (3 Bft) 89,36 %
12.10.2017 09:42 13,2 C 15,0 C 12,8 C 89 % 0 lf 1018,6 hPa 0,0 l/m 2 min 0 min 173 W/m 18,8 km/h (3 Bft) 93,62 %
12.10.2017 09:44 13,2 C 15,0 C 12,8 C 89 % 0 lf 1018,7 hPa 0,0 l/m 2 min 0 min 173 W/m 14,6 km/h (3 Bft) 93,62 %
12.10.2017 09:46 13,3 C 15,6 C 13,3 C 89 % 0 lf 1018,7 hPa 0,0 l/m 2 min 0 min 184 W/m 23,0 km/h (4 Bft) 89,36 %
12.10.2017 09:48 13,3 C 15,6 C 13,3 C 89 % 0 lf 1018,7 hPa 0,0 l/m 2 min 0 min 189 W/m 23,0 km/h (4 Bft) 93,48 %
12.10.2017 09:50 13,4 C 15,6 C 13,3 C 89 % 0 lf 1018,8 hPa 0,0 l/m 2 min 0 min 180 W/m 14,6 km/h (3 Bft) 93,62 %
12.10.2017 09:52 13,4 C 15,6 C 13,3 C 89 % 0 lf 1018,8 hPa 0,0 l/m 2 min 0 min 181 W/m 16,7 km/h (3 Bft) 93,62 %
12.10.2017 09:54 13,4 C 15,6 C 13,3 C 88 % 0 lf 1018,9 hPa 0,0 l/m 0 min 0 min 131 W/m 23,0 km/h (4 Bft) 89,36 %
12.10.2017 09:56 13,5 C 15,6 C 13,3 C 88 % 0 lf 1018,9 hPa 0,0 l/m 0 min 0 min 125 W/m 14,6 km/h (3 Bft) 93,62 %
12.10.2017 09:58 13,5 C 15,0 C 13,3 C 88 % 0 lf 1019,0 hPa 0,0 l/m 0 min 0 min 117 W/m 16,7 km/h (3 Bft) 93,62 %
12.10.2017 10:00 13,5 C 14,4 C 12,8 C 88 % 0 lf 1018,9 hPa 0,0 l/m 0 min 0 min 120 W/m 16,7 km/h (3 Bft) 91,30 %
12.10.2017 10:02 13,5 C 14,4 C 12,8 C 88 % 0 lf 1018,9 hPa 0,0 l/m 0 min 0 min 123 W/m 18,8 km/h (3 Bft) 85,11 %
12.10.2017 10:04 13,5 C 14,4 C 12,8 C 88 % 0 lf 1018,9 hPa 0,0 l/m 2 min 0 min 157 W/m 25,1 km/h (4 Bft) 89,36 %
12.10.2017 10:06 13,6 C 15,0 C 13,3 C 88 % 0 lf 1019,0 hPa 0,0 l/m 2 min 0 min 153 W/m 20,9 km/h (4 Bft) 95,74 %
12.10.2017 10:08 13,6 C 16,7 C 13,3 C 88 % 0 lf 1019,0 hPa 0,0 l/m 2 min 0 min 176 W/m 20,9 km/h (4 Bft) 95,74 %
12.10.2017 10:10 13,6 C 17,8 C 13,9 C 88 % 0 lf 1019,0 hPa 0,0 l/m 2 min 0 min 346 W/m 23,0 km/h (4 Bft) 95,74 %
12.10.2017 10:12 13,7 C 18,3 C 13,9 C 88 % 0 lf 1019,0 hPa 0,0 l/m 2 min 0 min 343 W/m 23,0 km/h (4 Bft) 95,65 %
12.10.2017 10:14 13,7 C 17,2 C 13,9 C 87 % 0 lf 1019,0 hPa 0,0 l/m 2 min 0 min 284 W/m 27,2 km/h (4 Bft) 93,62 %
12.10.2017 10:16 13,8 C 17,2 C 14,4 C 87 % 0 lf 1019,1 hPa 0,0 l/m 2 min 0 min 259 W/m 27,2 km/h (4 Bft) 95,74 %
12.10.2017 10:18 13,9 C 17,2 C 14,4 C 87 % 0 lf 1019,1 hPa 0,0 l/m 2 min 0 min 227 W/m 27,2 km/h (4 Bft) 93,62 %
12.10.2017 10:20 13,9 C 17,2 C 14,4 C 87 % 0 lf 1019,1 hPa 0,0 l/m 2 min 0 min 232 W/m 27,2 km/h (4 Bft) 95,74 %
12.10.2017 10:22 14,0 C 17,2 C 14,4 C 86 % 0 lf 1019,0 hPa 0,0 l/m 2 min 0 min 242 W/m 25,1 km/h (4 Bft) 95,74 %
12.10.2017 10:24 14,0 C 16,7 C 14,4 C 86 % 0 lf 1019,1 hPa 0,0 l/m 2 min 0 min 236 W/m 29,3 km/h (5 Bft) 93,48 %
12.10.2017 10:26 14,1 C 16,7 C 14,4 C 86 % 0 lf 1019,1 hPa 0,0 l/m 2 min 0 min 178 W/m 25,1 km/h (4 Bft) 97,87 %
12.10.2017 10:28 14,1 C 15,6 C 13,9 C 86 % 0 lf 1019,1 hPa 0,0 l/m 0 min 0 min 154 W/m 23,0 km/h (4 Bft) 97,87 %
12.10.2017 10:30 14,1 C 15,6 C 13,9 C 86 % 0 lf 1019,2 hPa 0,0 l/m 0 min 0 min 149 W/m 20,9 km/h (4 Bft) 97,87 %
12.10.2017 10:32 14,1 C 16,1 C 13,9 C 86 % 0 lf 1019,2 hPa 0,0 l/m 0 min 0 min 174 W/m 23,0 km/h (4 Bft) 100,00 %
12.10.2017 10:34 14,2 C 16,7 C 14,4 C 86 % 0 lf 1019,2 hPa 0,0 l/m 2 min 0 min 203 W/m 14,6 km/h (3 Bft) 97,87 %
12.10.2017 10:36 14,2 C 18,3 C 15,0 C 86 % 0 lf 1019,3 hPa 0,0 l/m 2 min 0 min 295 W/m 29,3 km/h (5 Bft) 93,48 %
12.10.2017 10:38 14,2 C 18,9 C 15,0 C 86 % 0 lf 1019,2 hPa 0,0 l/m 2 min 0 min 311 W/m 18,8 km/h (3 Bft) 97,87 %
12.10.2017 10:40 14,2 C 18,9 C 15,6 C 86 % 0 lf 1019,3 hPa 0,0 l/m 2 min 0 min 289 W/m 29,3 km/h (5 Bft) 100,00 %
12.10.2017 10:42 14,2 C 18,3 C 15,0 C 86 % 0 lf 1019,3 hPa 0,0 l/m 2 min 0 min 272 W/m 25,1 km/h (4 Bft) 97,87 %
12.10.2017 10:44 14,2 C 20,0 C 15,0 C 85 % 0 lf 1019,3 hPa 0,0 l/m 0 min 0 min 180 W/m 16,7 km/h (3 Bft) 100,00 %
12.10.2017 10:46 14,2 C 21,1 C 14,4 C 86 % 0 lf 1019,3 hPa 0,0 l/m 2 min 0 min 331 W/m 18,8 km/h (3 Bft) 95,74 %
12.10.2017 10:48 14,3 C 21,1 C 14,4 C 85 % 0 lf 1019,3 hPa 0,0 l/m 2 min 0 min 343 W/m 23,0 km/h (4 Bft) 97,83 %
12.10.2017 10:50 14,4 C 20,6 C 14,4 C 86 % 0 lf 1019,4 hPa 0,0 l/m 2 min 0 min 337 W/m 25,1 km/h (4 Bft) 100,00 %
12.10.2017 10:52 14,5 C 20,6 C 14,4 C 85 % 0 lf 1019,4 hPa 0,0 l/m 2 min 0 min 343 W/m 33,5 km/h (5 Bft) 100,00 %
12.10.2017 10:54 14,6 C 21,7 C 14,4 C 85 % 0 lf 1019,4 hPa 0,0 l/m 2 min 0 min 396 W/m 25,1 km/h (4 Bft) 93,62 %
12.10.2017 10:56 14,6 C 21,1 C 14,4 C 85 % 0 lf 1019,4 hPa 0,0 l/m 2 min 0 min 396 W/m 20,9 km/h (4 Bft) 95,74 %
12.10.2017 10:58 14,7 C 18,9 C 14,4 C 85 % 0 lf 1019,5 hPa 0,0 l/m 2 min 0 min 342 W/m 23,0 km/h (4 Bft) 97,83 %
12.10.2017 11:00 14,7 C 18,3 C 13,9 C 84 % 0 lf 1019,5 hPa 0,0 l/m 0 min 0 min 117 W/m 27,2 km/h (4 Bft) 97,87 %
12.10.2017 11:02 14,7 C 18,3 C 13,9 C 84 % 0 lf 1019,5 hPa 0,0 l/m 2 min 0 min 340 W/m 33,5 km/h (5 Bft) 95,74 %
12.10.2017 11:04 14,7 C 18,9 C 13,9 C 83 % 0 lf 1019,5 hPa 0,0 l/m 2 min 0 min 293 W/m 27,2 km/h (4 Bft) 100,00 %
12.10.2017 11:06 14,7 C 19,4 C 13,9 C 83 % 0 lf 1019,5 hPa 0,0 l/m 2 min 0 min 341 W/m 27,2 km/h (4 Bft) 95,74 %
12.10.2017 11:08 14,8 C 20,0 C 13,9 C 83 % 0 lf 1019,5 hPa 0,0 l/m 2 min 0 min 370 W/m 35,6 km/h (5 Bft) 97,87 %
12.10.2017 11:10 14,8 C 20,6 C 14,4 C 83 % 0 lf 1019,5 hPa 0,0 l/m 2 min 0 min 459 W/m 25,1 km/h (4 Bft) 94,59 %
12.10.2017 11:12 14,8 C 21,1 C 14,4 C 83 % 0 lf 1019,5 hPa 0,0 l/m 2 min 0 min 469 W/m 25,1 km/h (4 Bft) 95,74 %
12.10.2017 11:14 14,9 C 21,7 C 14,4 C 83 % 0 lf 1019,5 hPa 0,0 l/m 2 min 0 min 472 W/m 29,3 km/h (5 Bft) 97,83 %
12.10.2017 11:16 15,0 C 21,1 C 14,4 C 83 % 0 lf 1019,5 hPa 0,0 l/m 2 min 0 min 412 W/m 23,0 km/h (4 Bft) 95,74 %
12.10.2017 11:18 15,1 C 18,9 C 14,4 C 82 % 0 lf 1019,7 hPa 0,0 l/m 0 min 0 min 168 W/m 25,1 km/h (4 Bft) 97,87 %
12.10.2017 11:20 15,1 C 19,4 C 14,4 C 82 % 0 lf 1019,7 hPa 0,0 l/m 0 min 0 min 153 W/m 23,0 km/h (4 Bft) 97,87 %
12.10.2017 11:22 15,1 C 18,9 C 13,9 C 82 % 0 lf 1019,7 hPa 0,0 l/m 0 min 0 min 168 W/m 35,6 km/h (5 Bft) 97,87 %
12.10.2017 11:24 15,1 C 18,3 C 13,9 C 81 % 0 lf 1019,7 hPa 0,0 l/m 0 min 0 min 155 W/m 12,6 km/h (3 Bft) 97,87 %
12.10.2017 11:26 15,1 C 20,0 C 14,4 C 82 % 0 lf 1019,7 hPa 0,0 l/m 2 min 0 min 302 W/m 20,9 km/h (4 Bft) 95,65 %
12.10.2017 11:28 15,2 C 21,1 C 15,0 C 82 % 0 lf 1019,7 hPa 0,0 l/m 2 min 0 min 432 W/m 23,0 km/h (4 Bft) 93,62 %
12.10.2017 11:30 15,2 C 20,0 C 14,4 C 81 % 0 lf 1019,8 hPa 0,0 l/m 2 min 0 min 458 W/m 31,4 km/h (5 Bft) 100,00 %
12.10.2017 11:32 15,2 C 20,6 C 14,4 C 81 % 0 lf 1019,9 hPa 0,0 l/m 0 min 0 min 153 W/m 31,4 km/h (5 Bft) 95,74 %
12.10.2017 11:34 15,2 C 20,6 C 15,0 C 81 % 0 lf 1019,9 hPa 0,0 l/m 0 min 0 min 146 W/m 31,4 km/h (5 Bft) 97,87 %
12.10.2017 11:36 15,2 C 19,4 C 15,0 C 80 % 0 lf 1019,9 hPa 0,0 l/m 0 min 0 min 208 W/m 23,0 km/h (4 Bft) 97,83 %
12.10.2017 11:38 15,3 C 21,1 C 15,0 C 80 % 0 lf 1019,9 hPa 0,0 l/m 2 min 0 min 341 W/m 27,2 km/h (4 Bft) 100,00 %
12.10.2017 11:40 15,3 C 22,2 C 15,6 C 80 % 0 lf 1019,9 hPa 0,0 l/m 2 min 0 min 464 W/m 27,2 km/h (4 Bft) 100,00 %
12.10.2017 11:42 15,4 C 21,1 C 15,6 C 79 % 0 lf 1020,0 hPa 0,0 l/m 2 min 0 min 504 W/m 25,1 km/h (4 Bft) 100,00 %
12.10.2017 11:44 15,4 C 19,4 C 15,0 C 79 % 0 lf 1020,0 hPa 0,0 l/m 0 min 0 min 202 W/m 29,3 km/h (5 Bft) 100,00 %
12.10.2017 11:46 15,4 C 18,9 C 15,0 C 78 % 0 lf 1020,0 hPa 0,0 l/m 0 min 0 min 190 W/m 20,9 km/h (4 Bft) 97,87 %
12.10.2017 11:48 15,4 C 18,9 C 15,0 C 78 % 0 lf 1020,0 hPa 0,0 l/m 0 min 0 min 227 W/m 33,5 km/h (5 Bft) 100,00 %
12.10.2017 11:50 15,3 C 17,2 C 14,4 C 77 % 0 lf 1020,0 hPa 0,0 l/m 0 min 0 min 223 W/m 31,4 km/h (5 Bft) 100,00 %
12.10.2017 11:52 15,3 C 17,2 C 15,0 C 77 % 0 lf 1020,0 hPa 0,0 l/m 0 min 0 min 220 W/m 27,2 km/h (4 Bft) 100,00 %
12.10.2017 11:54 15,3 C 18,3 C 15,6 C 78 % 0 lf 1020,0 hPa 0,0 l/m 2 min 0 min 317 W/m 20,9 km/h (4 Bft) 100,00 %
12.10.2017 11:56 15,3 C 17,8 C 15,0 C 78 % 0 lf 1020,0 hPa 0,0 l/m 2 min 0 min 292 W/m 23,0 km/h (4 Bft) 97,87 %
12.10.2017 11:58 15,3 C 18,3 C 15,6 C 78 % 0 lf 1020,1 hPa 0,0 l/m 2 min 0 min 252 W/m 27,2 km/h (4 Bft) 100,00 %
12.10.2017 12:00 15,3 C 17,8 C 15,6 C 78 % 0 lf 1020,2 hPa 0,0 l/m 2 min 0 min 262 W/m 27,2 km/h (4 Bft) 97,83 %
12.10.2017 12:02 15,3 C 18,3 C 16,1 C 78 % 0 lf 1020,3 hPa 0,0 l/m 2 min 0 min 262 W/m 23,0 km/h (4 Bft) 91,49 %
12.10.2017 12:04 15,3 C 19,4 C 16,7 C 78 % 0 lf 1020,3 hPa 0,0 l/m 2 min 0 min 377 W/m 25,1 km/h (4 Bft) 97,87 %
12.10.2017 12:06 15,3 C 18,9 C 16,1 C 77 % 0 lf 1020,4 hPa 0,0 l/m 2 min 0 min 341 W/m 31,4 km/h (5 Bft) 95,74 %
12.10.2017 12:10 15,4 C 19,4 C 16,7 C 77 % 0 lf 1020,4 hPa 0,0 l/m 4 min 0 min 326 W/m 23,0 km/h (4 Bft) 96,97 %
12.10.2017 12:12 15,5 C 20,0 C 17,2 C 77 % 0 lf 1020,5 hPa 0,0 l/m 2 min 0 min 368 W/m 27,2 km/h (4 Bft) 97,87 %
12.10.2017 12:14 15,6 C 18,9 C 16,7 C 77 % 0 lf 1020,5 hPa 0,0 l/m 2 min 0 min 315 W/m 31,4 km/h (5 Bft) 95,74 %
12.10.2017 12:16 15,6 C 18,9 C 16,7 C 77 % 0 lf 1020,6 hPa 0,0 l/m 2 min 0 min 326 W/m 20,9 km/h (4 Bft) 97,87 %
12.10.2017 12:18 15,7 C 18,9 C 16,7 C 76 % 0 lf 1020,6 hPa 0,0 l/m 2 min 0 min 334 W/m 25,1 km/h (4 Bft) 93,62 %
12.10.2017 12:20 15,7 C 18,9 C 16,7 C 76 % 0 lf 1020,7 hPa 0,0 l/m 2 min 0 min 296 W/m 20,9 km/h (4 Bft) 97,87 %
12.10.2017 12:22 15,7 C 18,3 C 16,7 C 75 % 0 lf 1020,7 hPa 0,0 l/m 2 min 0 min 330 W/m 33,5 km/h (5 Bft) 97,83 %
12.10.2017 12:24 15,7 C 18,3 C 16,7 C 75 % 0 lf 1020,7 hPa 0,0 l/m 2 min 0 min 292 W/m 23,0 km/h (4 Bft) 93,62 %
12.10.2017 12:26 15,7 C 18,3 C 16,1 C 75 % 0 lf 1020,7 hPa 0,0 l/m 2 min 0 min 278 W/m 18,8 km/h (3 Bft) 93,62 %
12.10.2017 12:28 15,8 C 17,8 C 16,1 C 75 % 0 lf 1020,7 hPa 0,0 l/m 2 min 0 min 276 W/m 33,5 km/h (5 Bft) 97,87 %
12.10.2017 12:30 15,7 C 17,8 C 16,1 C 75 % 0 lf 1020,8 hPa 0,0 l/m 2 min 0 min 332 W/m 29,3 km/h (5 Bft) 95,74 %
12.10.2017 12:32 15,7 C 18,3 C 16,1 C 75 % 0 lf 1020,8 hPa 0,0 l/m 2 min 0 min 357 W/m 20,9 km/h (4 Bft) 93,62 %
12.10.2017 12:34 15,8 C 18,9 C 16,7 C 75 % 0 lf 1020,9 hPa 0,0 l/m 2 min 0 min 310 W/m 16,7 km/h (3 Bft) 89,13 %
12.10.2017 12:36 15,8 C 18,3 C 16,1 C 75 % 0 lf 1021,0 hPa 0,0 l/m 2 min 0 min 291 W/m 33,5 km/h (5 Bft) 91,49 %
12.10.2017 12:38 15,8 C 18,9 C 16,1 C 75 % 0 lf 1020,9 hPa 0,0 l/m 2 min 0 min 289 W/m 20,9 km/h (4 Bft) 91,49 %
12.10.2017 12:40 15,8 C 18,9 C 16,1 C 75 % 0 lf 1020,9 hPa 0,0 l/m 2 min 0 min 312 W/m 23,0 km/h (4 Bft) 93,62 %
12.10.2017 12:42 15,8 C 20,0 C 16,1 C 75 % 0 lf 1020,9 hPa 0,0 l/m 2 min 0 min 429 W/m 18,8 km/h (3 Bft) 91,49 %
12.10.2017 12:44 15,9 C 20,6 C 16,1 C 75 % 0 lf 1020,9 hPa 0,0 l/m 2 min 0 min 342 W/m 20,9 km/h (4 Bft) 95,74 %
12.10.2017 12:46 15,9 C 19,4 C 16,1 C 75 % 0 lf 1020,9 hPa 0,0 l/m 2 min 0 min 306 W/m 31,4 km/h (5 Bft) 95,65 %
12.10.2017 12:48 16,0 C 20,0 C 16,1 C 74 % 0 lf 1020,9 hPa 0,0 l/m 2 min 0 min 355 W/m 31,4 km/h (5 Bft) 95,74 %
12.10.2017 12:50 16,0 C 21,1 C 16,7 C 74 % 0 lf 1021,0 hPa 0,0 l/m 2 min 0 min 522 W/m 29,3 km/h (5 Bft) 95,74 %
12.10.2017 12:52 16,1 C 22,2 C 16,7 C 74 % 0 lf 1021,0 hPa 0,0 l/m 2 min 0 min 565 W/m 27,2 km/h (4 Bft) 95,74 %
12.10.2017 12:54 16,2 C 22,2 C 16,7 C 73 % 0 lf 1021,0 hPa 0,0 l/m 2 min 0 min 589 W/m 35,6 km/h (5 Bft) 95,74 %
12.10.2017 12:56 16,3 C 22,8 C 16,7 C 73 % 0 lf 1021,0 hPa 0,0 l/m 2 min 0 min 580 W/m 31,4 km/h (5 Bft) 93,48 %
12.10.2017 12:58 16,4 C 23,9 C 16,7 C 72 % 0 lf 1020,9 hPa 0,0 l/m 2 min 0 min 608 W/m 25,1 km/h (4 Bft) 91,49 %
12.10.2017 13:00 16,5 C 23,9 C 16,7 C 72 % 0 lf 1021,0 hPa 0,0 l/m 2 min 0 min 467 W/m 18,8 km/h (3 Bft) 95,74 %
12.10.2017 13:02 16,6 C 23,9 C 16,7 C 72 % 0 lf 1021,0 hPa 0,0 l/m 2 min 0 min 493 W/m 33,5 km/h (5 Bft) 89,36 %
12.10.2017 13:04 16,7 C 23,3 C 16,7 C 72 % 0 lf 1021,1 hPa 0,0 l/m 2 min 0 min 542 W/m 33,5 km/h (5 Bft) 93,62 %
12.10.2017 13:06 16,7 C 21,7 C 16,7 C 71 % 0 lf 1021,0 hPa 0,0 l/m 2 min 0 min 384 W/m 18,8 km/h (3 Bft) 95,74 %
12.10.2017 13:08 16,7 C 22,8 C 16,7 C 71 % 0 lf 1021,0 hPa 0,0 l/m 2 min 0 min 464 W/m 23,0 km/h (4 Bft) 95,74 %
12.10.2017 13:10 16,8 C 22,2 C 16,7 C 70 % 0 lf 1021,0 hPa 0,0 l/m 2 min 0 min 504 W/m 35,6 km/h (5 Bft) 95,65 %
12.10.2017 13:12 16,8 C 21,7 C 16,7 C 70 % 0 lf 1021,0 hPa 0,0 l/m 2 min 0 min 545 W/m 31,4 km/h (5 Bft) 95,74 %
12.10.2017 13:14 16,8 C 21,1 C 16,7 C 70 % 0 lf 1021,0 hPa 0,0 l/m 2 min 0 min 357 W/m 29,3 km/h (5 Bft) 91,49 %
12.10.2017 13:16 16,8 C 19,4 C 16,7 C 69 % 0 lf 1021,0 hPa 0,0 l/m 2 min 0 min 266 W/m 31,4 km/h (5 Bft) 95,74 %
12.10.2017 13:18 16,7 C 18,3 C 16,1 C 69 % 0 lf 1021,0 hPa 0,0 l/m 2 min 0 min 287 W/m 29,3 km/h (5 Bft) 93,62 %
12.10.2017 13:20 16,6 C 18,9 C 16,1 C 69 % 0 lf 1021,0 hPa 0,0 l/m 2 min 0 min 365 W/m 29,3 km/h (5 Bft) 95,65 %
12.10.2017 13:22 16,6 C 18,9 C 15,6 C 69 % 0 lf 1021,0 hPa 0,0 l/m 2 min 0 min 325 W/m 29,3 km/h (5 Bft) 95,74 %
12.10.2017 13:24 16,5 C 19,4 C 16,1 C 69 % 0 lf 1021,0 hPa 0,0 l/m 2 min 0 min 377 W/m 29,3 km/h (5 Bft) 95,74 %
12.10.2017 13:26 16,5 C 19,4 C 16,1 C 70 % 0 lf 1021,0 hPa 0,0 l/m 2 min 0 min 369 W/m 27,2 km/h (4 Bft) 97,87 %
12.10.2017 13:28 16,5 C 20,0 C 16,1 C 70 % 0 lf 1021,1 hPa 0,0 l/m 2 min 0 min 365 W/m 25,1 km/h (4 Bft) 97,87 %
12.10.2017 13:30 16,5 C 20,0 C 16,1 C 70 % 0 lf 1021,1 hPa 0,0 l/m 2 min 0 min 377 W/m 35,6 km/h (5 Bft) 100,00 %
12.10.2017 13:32 16,5 C 20,6 C 16,1 C 70 % 0 lf 1021,0 hPa 0,0 l/m 2 min 0 min 375 W/m 35,6 km/h (5 Bft) 97,83 %
12.10.2017 13:34 16,5 C 21,1 C 16,1 C 70 % 0 lf 1021,1 hPa 0,0 l/m 2 min 0 min 458 W/m 37,7 km/h (5 Bft) 95,74 %
12.10.2017 13:36 16,6 C 20,6 C 16,1 C 70 % 0 lf 1021,1 hPa 0,0 l/m 2 min 0 min 461 W/m 29,3 km/h (5 Bft) 95,74 %
12.10.2017 13:38 16,6 C 20,6 C 16,7 C 71 % 0 lf 1021,0 hPa 0,0 l/m 2 min 0 min 290 W/m 20,9 km/h (4 Bft) 97,87 %
12.10.2017 13:40 16,6 C 20,6 C 16,7 C 70 % 0 lf 1021,0 hPa 0,0 l/m 2 min 0 min 403 W/m 31,4 km/h (5 Bft) 97,87 %
12.10.2017 13:42 16,7 C 20,0 C 16,7 C 70 % 0 lf 1021,0 hPa 0,0 l/m 2 min 0 min 368 W/m 23,0 km/h (4 Bft) 93,62 %
12.10.2017 13:44 16,7 C 20,6 C 16,7 C 70 % 0 lf 1021,1 hPa 0,0 l/m 2 min 0 min 378 W/m 31,4 km/h (5 Bft) 95,65 %
12.10.2017 13:46 16,7 C 20,6 C 16,7 C 71 % 0 lf 1021,0 hPa 0,0 l/m 2 min 0 min 387 W/m 27,2 km/h (4 Bft) 97,87 %
12.10.2017 13:48 16,7 C 20,6 C 16,1 C 70 % 0 lf 1021,1 hPa 0,0 l/m 2 min 0 min 325 W/m 35,6 km/h (5 Bft) 95,74 %
12.10.2017 13:50 16,8 C 21,1 C 16,1 C 69 % 0 lf 1021,0 hPa 0,0 l/m 2 min 0 min 439 W/m 29,3 km/h (5 Bft) 97,87 %
12.10.2017 13:52 16,8 C 21,1 C 16,1 C 70 % 0 lf 1021,0 hPa 0,0 l/m 2 min 0 min 428 W/m 27,2 km/h (4 Bft) 100,00 %
12.10.2017 13:54 16,8 C 21,1 C 16,1 C 70 % 0 lf 1021,0 hPa 0,0 l/m 2 min 0 min 439 W/m 27,2 km/h (4 Bft) 97,87 %
12.10.2017 13:56 16,8 C 20,0 C 16,1 C 68 % 0 lf 1021,1 hPa 0,0 l/m 2 min 0 min 274 W/m 31,4 km/h (5 Bft) 97,83 %
12.10.2017 13:58 16,8 C 21,1 C 16,1 C 69 % 0 lf 1021,0 hPa 0,0 l/m 2 min 0 min 394 W/m 35,6 km/h (5 Bft) 97,87 %
12.10.2017 14:00 16,8 C 21,1 C 16,1 C 69 % 0 lf 1021,1 hPa 0,0 l/m 2 min 0 min 411 W/m 25,1 km/h (4 Bft) 97,87 %
12.10.2017 14:02 16,8 C 21,7 C 16,1 C 69 % 0 lf 1021,1 hPa 0,0 l/m 2 min 0 min 382 W/m 27,2 km/h (4 Bft) 97,87 %
12.10.2017 14:04 16,8 C 20,6 C 16,1 C 69 % 0 lf 1021,1 hPa 0,0 l/m 2 min 0 min 417 W/m 37,7 km/h (5 Bft) 100,00 %
12.10.2017 14:06 16,8 C 19,4 C 16,1 C 68 % 0 lf 1021,0 hPa 0,0 l/m 0 min 0 min 194 W/m 23,0 km/h (4 Bft) 100,00 %
12.10.2017 14:08 16,8 C 18,9 C 15,6 C 68 % 0 lf 1021,1 hPa 0,0 l/m 0 min 0 min 183 W/m 29,3 km/h (5 Bft) 100,00 %
12.10.2017 14:10 16,7 C 19,4 C 15,6 C 69 % 0 lf 1021,1 hPa 0,0 l/m 0 min 0 min 231 W/m 27,2 km/h (4 Bft) 100,00 %
12.10.2017 14:12 16,7 C 20,0 C 15,6 C 69 % 0 lf 1021,1 hPa 0,0 l/m 2 min 0 min 423 W/m 29,3 km/h (5 Bft) 100,00 %
12.10.2017 14:14 16,7 C 20,6 C 15,6 C 69 % 0 lf 1021,1 hPa 0,0 l/m 2 min 0 min 461 W/m 37,7 km/h (5 Bft) 100,00 %
12.10.2017 14:16 16,7 C 21,1 C 15,6 C 69 % 0 lf 1021,1 hPa 0,0 l/m 2 min 0 min 452 W/m 29,3 km/h (5 Bft) 100,00 %
12.10.2017 14:18 16,7 C 19,4 C 15,6 C 69 % 0 lf 1021,1 hPa 0,0 l/m 2 min 0 min 273 W/m 31,4 km/h (5 Bft) 95,74 %
12.10.2017 14:20 16,7 C 18,3 C 15,6 C 69 % 0 lf 1021,1 hPa 0,0 l/m 0 min 0 min 170 W/m 18,8 km/h (3 Bft) 100,00 %
12.10.2017 14:22 16,6 C 17,8 C 15,0 C 69 % 0 lf 1021,1 hPa 0,0 l/m 0 min 0 min 181 W/m 25,1 km/h (4 Bft) 100,00 %
12.10.2017 14:24 16,6 C 18,9 C 15,6 C 69 % 0 lf 1021,1 hPa 0,0 l/m 2 min 0 min 266 W/m 18,8 km/h (3 Bft) 100,00 %
12.10.2017 14:26 16,6 C 21,1 C 16,1 C 70 % 0 lf 1021,1 hPa 0,0 l/m 2 min 0 min 464 W/m 20,9 km/h (4 Bft) 100,00 %
12.10.2017 14:28 16,6 C 21,1 C 16,1 C 70 % 0 lf 1021,1 hPa 0,0 l/m 2 min 0 min 485 W/m 27,2 km/h (4 Bft) 100,00 %
12.10.2017 14:30 16,6 C 20,6 C 16,7 C 70 % 0 lf 1021,1 hPa 0,0 l/m 2 min 0 min 326 W/m 27,2 km/h (4 Bft) 97,87 %
12.10.2017 14:32 16,7 C 21,7 C 16,1 C 69 % 0 lf 1021,0 hPa 0,0 l/m 2 min 0 min 321 W/m 27,2 km/h (4 Bft) 100,00 %
12.10.2017 14:34 16,7 C 22,2 C 16,7 C 70 % 0 lf 1021,1 hPa 0,0 l/m 2 min 0 min 410 W/m 16,7 km/h (3 Bft) 97,87 %
12.10.2017 14:36 16,8 C 22,2 C 16,7 C 70 % 0 lf 1021,1 hPa 0,0 l/m 2 min 0 min 347 W/m 14,6 km/h (3 Bft) 95,74 %
12.10.2017 14:38 16,9 C 22,8 C 16,7 C 70 % 0 lf 1021,1 hPa 0,0 l/m 2 min 0 min 416 W/m 14,6 km/h (3 Bft) 97,87 %
12.10.2017 14:40 16,9 C 21,7 C 16,7 C 70 % 0 lf 1021,1 hPa 0,0 l/m 0 min 0 min 238 W/m 25,1 km/h (4 Bft) 95,74 %
12.10.2017 14:42 16,9 C 21,1 C 16,7 C 69 % 0 lf 1021,1 hPa 0,0 l/m 2 min 0 min 336 W/m 25,1 km/h (4 Bft) 97,83 %
12.10.2017 14:44 17,0 C 21,7 C 16,7 C 70 % 0 lf 1021,1 hPa 0,0 l/m 2 min 0 min 394 W/m 20,9 km/h (4 Bft) 93,62 %
12.10.2017 14:46 17,1 C 20,6 C 16,7 C 69 % 0 lf 1021,1 hPa 0,0 l/m 2 min 0 min 246 W/m 29,3 km/h (5 Bft) 97,87 %
12.10.2017 14:48 17,1 C 19,4 C 16,1 C 68 % 0 lf 1021,1 hPa 0,0 l/m 2 min 0 min 238 W/m 25,1 km/h (4 Bft) 97,87 %
12.10.2017 14:50 17,1 C 20,0 C 16,1 C 69 % 0 lf 1021,2 hPa 0,0 l/m 2 min 0 min 309 W/m 23,0 km/h (4 Bft) 97,87 %
12.10.2017 14:52 17,1 C 20,0 C 16,1 C 69 % 0 lf 1021,2 hPa 0,0 l/m 2 min 0 min 257 W/m 29,3 km/h (5 Bft) 95,74 %
12.10.2017 14:54 17,1 C 21,1 C 16,7 C 69 % 0 lf 1021,3 hPa 0,0 l/m 2 min 0 min 330 W/m 27,2 km/h (4 Bft) 97,83 %
12.10.2017 14:56 17,1 C 20,0 C 16,7 C 69 % 0 lf 1021,2 hPa 0,0 l/m 2 min 0 min 346 W/m 25,1 km/h (4 Bft) 97,87 %
12.10.2017 14:58 17,1 C 19,4 C 16,7 C 68 % 0 lf 1021,2 hPa 0,0 l/m 2 min 0 min 241 W/m 23,0 km/h (4 Bft) 97,87 %
12.10.2017 15:00 17,1 C 18,3 C 16,7 C 67 % 0 lf 1021,3 hPa 0,0 l/m 0 min 0 min 202 W/m 33,5 km/h (5 Bft) 95,74 %
12.10.2017 15:02 16,9 C 17,8 C 16,1 C 67 % 0 lf 1021,3 hPa 0,0 l/m 0 min 0 min 200 W/m 33,5 km/h (5 Bft) 97,87 %
12.10.2017 15:04 16,9 C 17,8 C 16,1 C 68 % 0 lf 1021,3 hPa 0,0 l/m 0 min 0 min 190 W/m 31,4 km/h (5 Bft) 97,87 %
12.10.2017 15:06 16,8 C 17,8 C 16,1 C 68 % 0 lf 1021,4 hPa 0,0 l/m 0 min 0 min 199 W/m 29,3 km/h (5 Bft) 95,65 %
12.10.2017 15:08 16,8 C 18,3 C 16,1 C 68 % 0 lf 1021,4 hPa 0,0 l/m 0 min 0 min 216 W/m 25,1 km/h (4 Bft) 89,36 %
12.10.2017 15:10 16,7 C 18,9 C 16,1 C 68 % 0 lf 1021,4 hPa 0,0 l/m 0 min 0 min 211 W/m 27,2 km/h (4 Bft) 97,87 %
12.10.2017 15:12 16,7 C 19,4 C 16,1 C 68 % 0 lf 1021,3 hPa 0,0 l/m 2 min 0 min 368 W/m 27,2 km/h (4 Bft) 97,87 %
12.10.2017 15:14 16,7 C 18,9 C 16,1 C 69 % 0 lf 1021,4 hPa 0,0 l/m 2 min 0 min 220 W/m 27,2 km/h (4 Bft) 95,74 %
12.10.2017 15:16 16,7 C 18,9 C 16,1 C 69 % 0 lf 1021,5 hPa 0,0 l/m 2 min 0 min 240 W/m 23,0 km/h (4 Bft) 97,87 %
12.10.2017 15:18 16,7 C 17,8 C 16,1 C 69 % 0 lf 1021,4 hPa 0,0 l/m 2 min 0 min 252 W/m 25,1 km/h (4 Bft) 95,65 %
12.10.2017 15:20 16,7 C 18,9 C 16,1 C 69 % 0 lf 1021,3 hPa 0,0 l/m 2 min 0 min 264 W/m 16,7 km/h (3 Bft) 97,87 %
12.10.2017 15:22 16,7 C 18,9 C 16,1 C 69 % 0 lf 1021,3 hPa 0,0 l/m 2 min 0 min 329 W/m 16,7 km/h (3 Bft) 95,74 %
12.10.2017 15:24 16,7 C 18,9 C 16,1 C 70 % 0 lf 1021,4 hPa 0,0 l/m 2 min 0 min 221 W/m 16,7 km/h (3 Bft) 95,74 %
12.10.2017 15:26 16,7 C 20,0 C 16,1 C 70 % 0 lf 1021,4 hPa 0,0 l/m 2 min 0 min 302 W/m 14,6 km/h (3 Bft) 95,74 %
12.10.2017 15:28 16,7 C 20,6 C 16,1 C 70 % 0 lf 1021,4 hPa 0,0 l/m 2 min 0 min 345 W/m 20,9 km/h (4 Bft) 93,62 %
12.10.2017 15:30 16,8 C 20,0 C 16,1 C 70 % 0 lf 1021,4 hPa 0,0 l/m 2 min 0 min 260 W/m 25,1 km/h (4 Bft) 97,83 %
12.10.2017 15:32 16,8 C 20,6 C 16,1 C 70 % 0 lf 1021,4 hPa 0,0 l/m 2 min 0 min 285 W/m 20,9 km/h (4 Bft) 95,74 %
12.10.2017 15:34 16,8 C 20,0 C 16,1 C 69 % 0 lf 1021,4 hPa 0,0 l/m 2 min 0 min 301 W/m 25,1 km/h (4 Bft) 97,87 %
12.10.2017 15:36 16,8 C 19,4 C 16,1 C 69 % 0 lf 1021,4 hPa 0,0 l/m 2 min 0 min 292 W/m 16,7 km/h (3 Bft) 95,74 %
12.10.2017 15:38 16,8 C 19,4 C 16,1 C 69 % 0 lf 1021,4 hPa 0,0 l/m 2 min 0 min 308 W/m 16,7 km/h (3 Bft) 93,62 %
12.10.2017 15:40 16,9 C 20,0 C 16,1 C 69 % 0 lf 1021,5 hPa 0,0 l/m 2 min 0 min 229 W/m 20,9 km/h (4 Bft) 97,83 %
12.10.2017 15:42 16,9 C 20,0 C 16,7 C 69 % 0 lf 1021,5 hPa 0,0 l/m 2 min 0 min 367 W/m 20,9 km/h (4 Bft) 93,62 %
12.10.2017 15:44 16,9 C 21,1 C 16,7 C 70 % 0 lf 1021,5 hPa 0,0 l/m 2 min 0 min 372 W/m 18,8 km/h (3 Bft) 97,87 %
12.10.2017 15:46 16,9 C 20,0 C 16,7 C 69 % 0 lf 1021,5 hPa 0,0 l/m 2 min 0 min 374 W/m 27,2 km/h (4 Bft) 91,49 %
12.10.2017 15:48 17,0 C 20,0 C 16,7 C 68 % 0 lf 1021,5 hPa 0,0 l/m 2 min 0 min 330 W/m 20,9 km/h (4 Bft) 91,49 %
12.10.2017 15:50 17,1 C 21,1 C 16,7 C 69 % 0 lf 1021,5 hPa 0,0 l/m 2 min 0 min 342 W/m 18,8 km/h (3 Bft) 95,74 %
12.10.2017 15:52 17,1 C 21,1 C 16,7 C 69 % 0 lf 1021,5 hPa 0,0 l/m 2 min 0 min 354 W/m 25,1 km/h (4 Bft) 93,62 %
12.10.2017 15:54 17,1 C 20,6 C 16,7 C 68 % 0 lf 1021,6 hPa 0,0 l/m 2 min 0 min 310 W/m 27,2 km/h (4 Bft) 91,30 %
12.10.2017 15:56 17,2 C 20,6 C 17,2 C 69 % 0 lf 1021,5 hPa 0,0 l/m 2 min 0 min 377 W/m 16,7 km/h (3 Bft) 93,62 %
12.10.2017 15:58 17,3 C 21,7 C 17,2 C 69 % 0 lf 1021,5 hPa 0,0 l/m 2 min 0 min 361 W/m 20,9 km/h (4 Bft) 92,68 %
12.10.2017 16:00 17,3 C 21,7 C 17,2 C 69 % 0 lf 1021,5 hPa 0,0 l/m 2 min 0 min 359 W/m 20,9 km/h (4 Bft) 93,62 %
12.10.2017 16:02 17,4 C 21,1 C 17,2 C 69 % 0 lf 1021,6 hPa 0,0 l/m 2 min 0 min 311 W/m 27,2 km/h (4 Bft) 93,62 %
12.10.2017 16:04 17,4 C 20,0 C 16,7 C 67 % 0 lf 1021,5 hPa 0,0 l/m 2 min 0 min 242 W/m 31,4 km/h (5 Bft) 91,49 %
12.10.2017 16:06 17,3 C 19,4 C 16,7 C 67 % 0 lf 1021,5 hPa 0,0 l/m 2 min 0 min 238 W/m 27,2 km/h (4 Bft) 91,30 %
12.10.2017 16:08 17,3 C 19,4 C 16,7 C 66 % 0 lf 1021,6 hPa 0,0 l/m 2 min 0 min 249 W/m 23,0 km/h (4 Bft) 93,62 %
12.10.2017 16:10 17,3 C 19,4 C 16,7 C 66 % 0 lf 1021,6 hPa 0,0 l/m 2 min 0 min 320 W/m 29,3 km/h (5 Bft) 93,62 %
12.10.2017 16:12 17,3 C 20,6 C 16,7 C 66 % 0 lf 1021,6 hPa 0,0 l/m 2 min 0 min 368 W/m 23,0 km/h (4 Bft) 97,87 %
12.10.2017 16:14 17,2 C 20,6 C 16,7 C 66 % 0 lf 1021,7 hPa 0,0 l/m 2 min 0 min 345 W/m 35,6 km/h (5 Bft) 95,74 %
12.10.2017 16:16 17,2 C 20,0 C 16,1 C 65 % 0 lf 1021,6 hPa 0,0 l/m 2 min 0 min 258 W/m 27,2 km/h (4 Bft) 91,49 %
12.10.2017 16:18 17,2 C 19,4 C 16,1 C 65 % 0 lf 1021,6 hPa 0,0 l/m 2 min 0 min 259 W/m 29,3 km/h (5 Bft) 95,65 %
12.10.2017 16:20 17,2 C 19,4 C 16,1 C 66 % 0 lf 1021,6 hPa 0,0 l/m 2 min 0 min 271 W/m 18,8 km/h (3 Bft) 93,62 %
12.10.2017 16:22 17,2 C 20,0 C 16,1 C 67 % 0 lf 1021,6 hPa 0,0 l/m 2 min 0 min 256 W/m 16,7 km/h (3 Bft) 95,74 %
12.10.2017 16:24 17,2 C 20,0 C 16,1 C 67 % 0 lf 1021,6 hPa 0,0 l/m 2 min 0 min 250 W/m 18,8 km/h (3 Bft) 97,87 %
12.10.2017 16:26 17,2 C 20,0 C 16,1 C 68 % 0 lf 1021,6 hPa 0,0 l/m 2 min 0 min 276 W/m 20,9 km/h (4 Bft) 97,87 %
12.10.2017 16:28 17,2 C 20,0 C 16,1 C 68 % 0 lf 1021,5 hPa 0,0 l/m 2 min 0 min 267 W/m 18,8 km/h (3 Bft) 97,87 %
12.10.2017 16:30 17,2 C 18,9 C 16,1 C 67 % 0 lf 1021,6 hPa 0,0 l/m 2 min 0 min 167 W/m 29,3 km/h (5 Bft) 97,83 %
12.10.2017 16:32 17,1 C 18,9 C 15,6 C 67 % 0 lf 1021,6 hPa 0,0 l/m 0 min 0 min 146 W/m 25,1 km/h (4 Bft) 97,87 %
12.10.2017 16:34 17,1 C 18,9 C 15,6 C 67 % 0 lf 1021,6 hPa 0,0 l/m 2 min 0 min 193 W/m 14,6 km/h (3 Bft) 89,36 %
12.10.2017 16:36 17,1 C 18,9 C 15,6 C 67 % 0 lf 1021,6 hPa 0,0 l/m 2 min 0 min 221 W/m 16,7 km/h (3 Bft) 97,87 %
12.10.2017 16:38 17,0 C 19,4 C 16,1 C 68 % 0 lf 1021,6 hPa 0,0 l/m 2 min 0 min 277 W/m 16,7 km/h (3 Bft) 97,87 %
12.10.2017 16:40 17,1 C 20,6 C 16,1 C 68 % 0 lf 1021,6 hPa 0,0 l/m 2 min 0 min 347 W/m 23,0 km/h (4 Bft) 95,74 %
12.10.2017 16:42 17,1 C 20,6 C 16,7 C 67 % 0 lf 1021,6 hPa 0,0 l/m 2 min 0 min 318 W/m 12,6 km/h (3 Bft) 100,00 %
12.10.2017 16:44 17,1 C 20,0 C 16,1 C 67 % 0 lf 1021,7 hPa 0,0 l/m 2 min 0 min 247 W/m 18,8 km/h (3 Bft) 100,00 %
12.10.2017 16:46 17,1 C 18,9 C 16,1 C 67 % 0 lf 1021,7 hPa 0,0 l/m 2 min 0 min 213 W/m 25,1 km/h (4 Bft) 97,87 %
12.10.2017 16:48 17,1 C 18,9 C 16,1 C 67 % 0 lf 1021,6 hPa 0,0 l/m 2 min 0 min 193 W/m 27,2 km/h (4 Bft) 100,00 %
12.10.2017 16:50 17,1 C 18,3 C 15,6 C 67 % 0 lf 1021,7 hPa 0,0 l/m 2 min 0 min 159 W/m 18,8 km/h (3 Bft) 97,87 %
12.10.2017 16:52 17,0 C 17,8 C 15,6 C 67 % 0 lf 1021,7 hPa 0,0 l/m 2 min 0 min 157 W/m 29,3 km/h (5 Bft) 97,83 %
12.10.2017 16:54 16,9 C 17,8 C 15,6 C 67 % 0 lf 1021,7 hPa 0,0 l/m 2 min 0 min 157 W/m 16,7 km/h (3 Bft) 100,00 %
12.10.2017 16:56 16,9 C 18,3 C 15,6 C 67 % 0 lf 1021,7 hPa 0,0 l/m 2 min 0 min 183 W/m 14,6 km/h (3 Bft) 100,00 %
12.10.2017 16:58 16,9 C 18,3 C 15,6 C 67 % 0 lf 1021,7 hPa 0,0 l/m 2 min 0 min 240 W/m 25,1 km/h (4 Bft) 93,62 %
12.10.2017 17:00 16,9 C 18,3 C 15,0 C 67 % 0 lf 1021,8 hPa 0,0 l/m 2 min 0 min 189 W/m 25,1 km/h (4 Bft) 100,00 %
12.10.2017 17:02 16,8 C 18,3 C 15,0 C 67 % 0 lf 1021,8 hPa 0,0 l/m 2 min 0 min 207 W/m 12,6 km/h (3 Bft) 100,00 %
12.10.2017 17:04 16,8 C 17,8 C 15,0 C 68 % 0 lf 1021,8 hPa 0,0 l/m 2 min 0 min 170 W/m 10,5 km/h (2 Bft) 100,00 %
12.10.2017 17:06 16,8 C 17,8 C 15,0 C 68 % 0 lf 1021,8 hPa 0,0 l/m 2 min 0 min 149 W/m 16,7 km/h (3 Bft) 100,00 %
12.10.2017 17:08 16,8 C 17,2 C 15,0 C 68 % 0 lf 1021,8 hPa 0,0 l/m 2 min 0 min 154 W/m 16,7 km/h (3 Bft) 100,00 %
12.10.2017 17:10 16,7 C 17,2 C 15,0 C 68 % 0 lf 1021,8 hPa 0,0 l/m 2 min 0 min 134 W/m 20,9 km/h (4 Bft) 97,87 %
12.10.2017 17:12 16,7 C 16,7 C 15,0 C 68 % 0 lf 1021,8 hPa 0,0 l/m 2 min 0 min 114 W/m 14,6 km/h (3 Bft) 97,87 %
12.10.2017 17:14 16,6 C 16,7 C 14,4 C 68 % 0 lf 1021,8 hPa 0,0 l/m 2 min 0 min 111 W/m 20,9 km/h (4 Bft) 97,87 %
12.10.2017 17:16 16,6 C 16,7 C 14,4 C 68 % 0 lf 1021,8 hPa 0,0 l/m 2 min 0 min 108 W/m 10,5 km/h (2 Bft) 95,65 %
12.10.2017 17:18 16,6 C 16,7 C 14,4 C 68 % 0 lf 1021,9 hPa 0,0 l/m 0 min 0 min 103 W/m 10,5 km/h (2 Bft) 95,74 %
12.10.2017 17:20 16,5 C 16,1 C 14,4 C 68 % 0 lf 1021,8 hPa 0,0 l/m 0 min 0 min 98 W/m 20,9 km/h (4 Bft) 97,87 %
12.10.2017 17:22 16,4 C 16,1 C 14,4 C 68 % 0 lf 1021,8 hPa 0,0 l/m 2 min 0 min 101 W/m 20,9 km/h (4 Bft) 95,74 %
12.10.2017 17:24 16,4 C 16,7 C 14,4 C 68 % 0 lf 1021,9 hPa 0,0 l/m 2 min 0 min 138 W/m 18,8 km/h (3 Bft) 97,87 %
12.10.2017 17:26 16,4 C 16,7 C 14,4 C 69 % 0 lf 1021,8 hPa 0,0 l/m 2 min 0 min 142 W/m 14,6 km/h (3 Bft) 97,87 %
12.10.2017 17:28 16,4 C 16,7 C 14,4 C 69 % 0 lf 1021,9 hPa 0,0 l/m 2 min 0 min 133 W/m 12,6 km/h (3 Bft) 95,65 %
12.10.2017 17:30 16,3 C 16,7 C 14,4 C 69 % 0 lf 1021,9 hPa 0,0 l/m 2 min 0 min 119 W/m 12,6 km/h (3 Bft) 97,87 %
12.10.2017 17:32 16,3 C 16,7 C 14,4 C 70 % 0 lf 1021,9 hPa 0,0 l/m 2 min 0 min 126 W/m 12,6 km/h (3 Bft) 97,87 %
12.10.2017 17:34 16,3 C 16,7 C 14,4 C 70 % 0 lf 1021,9 hPa 0,0 l/m 2 min 0 min 128 W/m 10,5 km/h (2 Bft) 97,87 %
12.10.2017 17:36 16,3 C 16,7 C 14,4 C 70 % 0 lf 1021,9 hPa 0,0 l/m 2 min 0 min 124 W/m 10,5 km/h (2 Bft) 97,87 %
12.10.2017 17:38 16,3 C 16,7 C 14,4 C 70 % 0 lf 1021,9 hPa 0,0 l/m 2 min 0 min 113 W/m 10,5 km/h (2 Bft) 95,74 %
12.10.2017 17:40 16,2 C 16,7 C 14,4 C 70 % 0 lf 1021,9 hPa 0,0 l/m 2 min 0 min 98 W/m 10,5 km/h (2 Bft) 97,83 %
12.10.2017 17:42 16,2 C 16,1 C 14,4 C 70 % 0 lf 1021,9 hPa 0,0 l/m 2 min 0 min 84 W/m 10,5 km/h (2 Bft) 95,74 %
12.10.2017 17:44 16,2 C 16,1 C 13,9 C 70 % 0 lf 1022,0 hPa 0,0 l/m 2 min 0 min 78 W/m 10,5 km/h (2 Bft) 97,87 %
12.10.2017 17:46 16,2 C 16,1 C 13,9 C 70 % 0 lf 1022,0 hPa 0,0 l/m 2 min 0 min 74 W/m 14,6 km/h (3 Bft) 97,87 %
12.10.2017 17:48 16,1 C 16,1 C 13,9 C 70 % 0 lf 1022,0 hPa 0,0 l/m 0 min 0 min 64 W/m 14,6 km/h (3 Bft) 97,87 %
12.10.2017 17:50 16,1 C 15,6 C 13,9 C 70 % 0 lf 1022,0 hPa 0,0 l/m 0 min 0 min 54 W/m 12,6 km/h (3 Bft) 97,87 %
12.10.2017 17:52 16,1 C 15,6 C 13,9 C 71 % 0 lf 1022,1 hPa 0,0 l/m 0 min 0 min 51 W/m 12,6 km/h (3 Bft) 97,83 %
12.10.2017 17:54 16,0 C 15,6 C 13,9 C 71 % 0 lf 1022,1 hPa 0,0 l/m 0 min 0 min 49 W/m 10,5 km/h (2 Bft) 100,00 %
12.10.2017 17:56 15,9 C 15,6 C 13,3 C 71 % 0 lf 1022,2 hPa 0,0 l/m 0 min 0 min 46 W/m 8,4 km/h (2 Bft) 97,87 %
12.10.2017 17:58 15,9 C 15,6 C 13,3 C 71 % 0 lf 1022,1 hPa 0,0 l/m 0 min 0 min 44 W/m 8,4 km/h (2 Bft) 97,87 %
12.10.2017 18:00 15,9 C 15,0 C 13,3 C 71 % 0 lf 1022,2 hPa 0,0 l/m 0 min 0 min 43 W/m 8,4 km/h (2 Bft) 95,74 %
12.10.2017 18:02 15,8 C 15,0 C 13,3 C 71 % 0 lf 1022,2 hPa 0,0 l/m 0 min 0 min 42 W/m 8,4 km/h (2 Bft) 100,00 %
12.10.2017 18:04 15,8 C 15,0 C 12,8 C 71 % 0 lf 1022,2 hPa 0,0 l/m 0 min 0 min 45 W/m 8,4 km/h (2 Bft) 100,00 %
12.10.2017 18:06 15,8 C 15,0 C 12,8 C 71 % 0 lf 1022,2 hPa 0,0 l/m 0 min 0 min 46 W/m 8,4 km/h (2 Bft) 95,74 %
12.10.2017 18:10 15,7 C 15,0 C 13,3 C 71 % 0 lf 1022,2 hPa 0,0 l/m 4 min 0 min 44 W/m 12,6 km/h (3 Bft) 97,03 %
12.10.2017 18:12 15,7 C 15,0 C 12,8 C 72 % 0 lf 1022,3 hPa 0,0 l/m 0 min 0 min 39 W/m 10,5 km/h (2 Bft) 97,87 %
12.10.2017 18:14 15,7 C 15,0 C 12,8 C 72 % 0 lf 1022,3 hPa 0,0 l/m 0 min 0 min 35 W/m 8,4 km/h (2 Bft) 97,83 %
12.10.2017 18:16 15,6 C 14,4 C 12,8 C 72 % 0 lf 1022,3 hPa 0,0 l/m 0 min 0 min 33 W/m 8,4 km/h (2 Bft) 91,49 %
12.10.2017 18:18 15,6 C 14,4 C 12,8 C 72 % 0 lf 1022,3 hPa 0,0 l/m 0 min 0 min 29 W/m 10,5 km/h (2 Bft) 97,87 %
12.10.2017 18:20 15,6 C 14,4 C 12,2 C 72 % 0 lf 1022,3 hPa 0,0 l/m 0 min 0 min 26 W/m 8,4 km/h (2 Bft) 91,49 %
12.10.2017 18:22 15,5 C 14,4 C 12,2 C 73 % 0 lf 1022,3 hPa 0,0 l/m 0 min 0 min 25 W/m 6,3 km/h (2 Bft) 93,62 %
12.10.2017 18:24 15,5 C 14,4 C 12,2 C 73 % 0 lf 1022,4 hPa 0,0 l/m 0 min 0 min 23 W/m 8,4 km/h (2 Bft) 95,65 %
12.10.2017 18:26 15,4 C 14,4 C 12,2 C 73 % 0 lf 1022,4 hPa 0,0 l/m 0 min 0 min 20 W/m 6,3 km/h (2 Bft) 95,74 %
12.10.2017 18:28 15,4 C 13,9 C 12,2 C 73 % 0 lf 1022,4 hPa 0,0 l/m 0 min 0 min 19 W/m 6,3 km/h (2 Bft) 95,74 %
12.10.2017 18:30 15,4 C 13,9 C 12,2 C 73 % 0 lf 1022,3 hPa 0,0 l/m 0 min 0 min 18 W/m 4,2 km/h (1 Bft) 95,74 %
12.10.2017 18:32 15,3 C 13,9 C 11,7 C 73 % 0 lf 1022,4 hPa 0,0 l/m 0 min 0 min 15 W/m 2,1 km/h (1 Bft) 95,74 %
12.10.2017 18:34 15,3 C 13,3 C 11,7 C 73 % 0 lf 1022,4 hPa 0,0 l/m 0 min 0 min 14 W/m 2,1 km/h (1 Bft) 91,49 %
12.10.2017 18:36 15,2 C 13,3 C 11,7 C 73 % 0 lf 1022,4 hPa 0,0 l/m 0 min 0 min 12 W/m 0,0 km/h (0 Bft) 95,65 %
12.10.2017 18:38 15,2 C 13,3 C 11,1 C 74 % 0 lf 1022,4 hPa 0,0 l/m 0 min 0 min 11 W/m 0,0 km/h (0 Bft) 93,62 %
12.10.2017 18:40 15,2 C 12,8 C 11,1 C 74 % 0 lf 1022,4 hPa 0,0 l/m 0 min 0 min 9 W/m 0,0 km/h (0 Bft) 95,74 %
12.10.2017 18:42 15,1 C 12,8 C 11,1 C 74 % 0 lf 1022,4 hPa 0,0 l/m 0 min 0 min 7 W/m 0,0 km/h (0 Bft) 97,87 %
12.10.2017 18:44 15,1 C 12,8 C 10,6 C 75 % 0 lf 1022,4 hPa 0,0 l/m 0 min 0 min 5 W/m 0,0 km/h (0 Bft) 95,74 %
12.10.2017 18:46 15,0 C 12,8 C 10,6 C 75 % 0 lf 1022,4 hPa 0,0 l/m 0 min 0 min 5 W/m 0,0 km/h (0 Bft) 97,87 %
12.10.2017 18:48 14,9 C 12,2 C 10,6 C 75 % 0 lf 1022,3 hPa 0,0 l/m 0 min 0 min 1 W/m 0,0 km/h (0 Bft) 97,83 %
12.10.2017 18:50 14,9 C 12,2 C 10,6 C 76 % 0 lf 1022,3 hPa 0,0 l/m 0 min 0 min 0 W/m 0,0 km/h (0 Bft) 93,62 %
12.10.2017 18:52 14,8 C 12,2 C 10,6 C 76 % 0 lf 1022,4 hPa 0,0 l/m 0 min 0 min 0 W/m 0,0 km/h (0 Bft) 95,74 %
12.10.2017 18:54 14,8 C 12,2 C 10,0 C 76 % 0 lf 1022,4 hPa 0,0 l/m 0 min 0 min 0 W/m 0,0 km/h (0 Bft) 95,74 %
12.10.2017 18:56 14,7 C 12,2 C 10,0 C 76 % 0 lf 1022,4 hPa 0,0 l/m 0 min 0 min 4 W/m 0,0 km/h (0 Bft) 97,87 %
12.10.2017 18:58 14,6 C 12,2 C 10,0 C 77 % 0 lf 1022,4 hPa 0,0 l/m 0 min 0 min 5 W/m 0,0 km/h (0 Bft) 95,74 %
12.10.2017 19:00 14,6 C 12,2 C 10,0 C 77 % 0 lf 1022,4 hPa 0,0 l/m 0 min 0 min 7 W/m 0,0 km/h (0 Bft) 95,65 %
12.10.2017 19:02 14,5 C 12,2 C 10,0 C 77 % 0 lf 1022,4 hPa 0,0 l/m 0 min 0 min 0 W/m 0,0 km/h (0 Bft) 95,74 %
12.10.2017 19:04 14,4 C 12,2 C 10,0 C 77 % 0 lf 1022,4 hPa 0,0 l/m 0 min 0 min 5 W/m 0,0 km/h (0 Bft) 95,74 %
12.10.2017 19:06 14,3 C 12,2 C 10,0 C 77 % 0 lf 1022,4 hPa 0,0 l/m 0 min 0 min 1 W/m 0,0 km/h (0 Bft) 93,62 %
12.10.2017 19:08 14,2 C 11,7 C 10,0 C 78 % 0 lf 1022,4 hPa 0,0 l/m 0 min 0 min 0 W/m 0,0 km/h (0 Bft) 91,49 %
12.10.2017 19:10 14,2 C 11,7 C 10,0 C 78 % 0 lf 1022,4 hPa 0,0 l/m 0 min 0 min 0 W/m 0,0 km/h (0 Bft) 93,62 %
12.10.2017 19:12 14,2 C 11,7 C 10,0 C 78 % 0 lf 1022,4 hPa 0,0 l/m 0 min 0 min 0 W/m 2,1 km/h (1 Bft) 95,65 %
12.10.2017 19:14 14,2 C 11,7 C 10,0 C 78 % 0 lf 1022,4 hPa 0,0 l/m 0 min 0 min 0 W/m 0,0 km/h (0 Bft) 95,74 %
12.10.2017 19:16 14,1 C 11,7 C 10,0 C 78 % 0 lf 1022,5 hPa 0,0 l/m 0 min 0 min 0 W/m 0,0 km/h (0 Bft) 91,49 %
12.10.2017 19:18 13,9 C 11,7 C 9,4 C 79 % 0 lf 1022,4 hPa 0,0 l/m 0 min 0 min 0 W/m 0,0 km/h (0 Bft) 93,62 %
12.10.2017 19:20 13,9 C 11,1 C 9,4 C 79 % 0 lf 1022,4 hPa 0,0 l/m 0 min 0 min 0 W/m 0,0 km/h (0 Bft) 97,87 %
12.10.2017 19:22 13,8 C 11,1 C 9,4 C 79 % 0 lf 1022,4 hPa 0,0 l/m 0 min 0 min 0 W/m 0,0 km/h (0 Bft) 95,65 %
12.10.2017 19:24 13,7 C 11,1 C 9,4 C 80 % 0 lf 1022,4 hPa 0,0 l/m 0 min 0 min 0 W/m 0,0 km/h (0 Bft) 95,74 %
12.10.2017 19:26 13,7 C 11,1 C 9,4 C 80 % 0 lf 1022,4 hPa 0,0 l/m 0 min 0 min 0 W/m 4,2 km/h (1 Bft) 97,87 %
12.10.2017 19:28 13,6 C 11,1 C 9,4 C 80 % 0 lf 1022,3 hPa 0,0 l/m 0 min 0 min 0 W/m 6,3 km/h (2 Bft) 97,87 %
12.10.2017 19:30 13,5 C 11,1 C 9,4 C 80 % 0 lf 1022,4 hPa 0,0 l/m 0 min 0 min 0 W/m 6,3 km/h (2 Bft) 95,74 %
12.10.2017 19:32 13,4 C 11,1 C 9,4 C 80 % 0 lf 1022,3 hPa 0,0 l/m 0 min 0 min 0 W/m 6,3 km/h (2 Bft) 97,87 %
12.10.2017 19:34 13,3 C 11,1 C 9,4 C 81 % 0 lf 1022,4 hPa 0,0 l/m 0 min 0 min 0 W/m 6,3 km/h (2 Bft) 95,65 %
12.10.2017 19:36 13,3 C 11,1 C 9,4 C 81 % 0 lf 1022,3 hPa 0,0 l/m 0 min 0 min 0 W/m 6,3 km/h (2 Bft) 95,74 %
12.10.2017 19:38 13,2 C 11,1 C 9,4 C 81 % 0 lf 1022,4 hPa 0,0 l/m 0 min 0 min 0 W/m 6,3 km/h (2 Bft) 97,87 %
12.10.2017 19:40 13,2 C 11,1 C 9,4 C 81 % 0 lf 1022,4 hPa 0,0 l/m 0 min 0 min 0 W/m 6,3 km/h (2 Bft) 93,62 %
12.10.2017 19:42 13,1 C 11,1 C 9,4 C 81 % 0 lf 1022,4 hPa 0,0 l/m 0 min 0 min 0 W/m 6,3 km/h (2 Bft) 97,87 %
12.10.2017 19:44 13,1 C 11,7 C 9,4 C 82 % 0 lf 1022,4 hPa 0,0 l/m 0 min 0 min 0 W/m 4,2 km/h (1 Bft) 95,74 %
12.10.2017 19:46 13,0 C 11,1 C 9,4 C 82 % 0 lf 1022,5 hPa 0,0 l/m 0 min 0 min 0 W/m 6,3 km/h (2 Bft) 100,00 %
12.10.2017 19:48 13,0 C 11,1 C 9,4 C 82 % 0 lf 1022,4 hPa 0,0 l/m 0 min 0 min 0 W/m 6,3 km/h (2 Bft) 100,00 %
12.10.2017 19:50 12,9 C 11,1 C 9,4 C 82 % 0 lf 1022,4 hPa 0,0 l/m 0 min 0 min 0 W/m 6,3 km/h (2 Bft) 100,00 %
12.10.2017 19:52 12,9 C 11,1 C 9,4 C 82 % 0 lf 1022,5 hPa 0,0 l/m 0 min 0 min 0 W/m 8,4 km/h (2 Bft) 100,00 %
12.10.2017 19:54 12,8 C 11,1 C 9,4 C 82 % 0 lf 1022,4 hPa 0,0 l/m 0 min 0 min 0 W/m 6,3 km/h (2 Bft) 97,87 %
12.10.2017 19:56 12,8 C 11,7 C 9,4 C 82 % 0 lf 1022,4 hPa 0,0 l/m 0 min 0 min 0 W/m 8,4 km/h (2 Bft) 95,74 %
12.10.2017 19:58 12,7 C 11,7 C 9,4 C 83 % 0 lf 1022,4 hPa 0,0 l/m 0 min 0 min 0 W/m 10,5 km/h (2 Bft) 100,00 %
12.10.2017 20:00 12,7 C 11,7 C 9,4 C 83 % 0 lf 1022,3 hPa 0,0 l/m 0 min 0 min 0 W/m 6,3 km/h (2 Bft) 93,62 %
12.10.2017 20:02 12,6 C 11,1 C 9,4 C 83 % 0 lf 1022,3 hPa 0,0 l/m 0 min 0 min 0 W/m 8,4 km/h (2 Bft) 95,74 %
12.10.2017 20:04 12,6 C 11,7 C 9,4 C 83 % 0 lf 1022,4 hPa 0,0 l/m 0 min 0 min 0 W/m 8,4 km/h (2 Bft) 97,87 %
12.10.2017 20:06 12,6 C 11,7 C 9,4 C 84 % 0 lf 1022,3 hPa 0,0 l/m 0 min 0 min 0 W/m 8,4 km/h (2 Bft) 93,62 %
12.10.2017 20:08 12,5 C 11,7 C 9,4 C 84 % 0 lf 1022,4 hPa 0,0 l/m 0 min 0 min 0 W/m 6,3 km/h (2 Bft) 95,74 %
12.10.2017 20:10 12,4 C 11,7 C 9,4 C 84 % 0 lf 1022,4 hPa 0,0 l/m 0 min 0 min 0 W/m 8,4 km/h (2 Bft) 95,65 %
12.10.2017 20:12 12,4 C 11,7 C 9,4 C 84 % 0 lf 1022,5 hPa 0,0 l/m 0 min 0 min 0 W/m 6,3 km/h (2 Bft) 93,62 %
12.10.2017 20:14 12,4 C 11,7 C 9,4 C 84 % 0 lf 1022,5 hPa 0,0 l/m 0 min 0 min 0 W/m 6,3 km/h (2 Bft) 93,62 %
12.10.2017 20:16 12,4 C 11,7 C 9,4 C 84 % 0 lf 1022,5 hPa 0,0 l/m 0 min 0 min 0 W/m 6,3 km/h (2 Bft) 95,74 %
12.10.2017 20:18 12,3 C 11,1 C 9,4 C 85 % 0 lf 1022,5 hPa 0,0 l/m 0 min 0 min 0 W/m 6,3 km/h (2 Bft) 95,74 %
12.10.2017 20:20 12,3 C 11,1 C 9,4 C 85 % 0 lf 1022,5 hPa 0,0 l/m 0 min 0 min 0 W/m 8,4 km/h (2 Bft) 95,74 %
12.10.2017 20:22 12,3 C 11,1 C 8,9 C 85 % 0 lf 1022,5 hPa 0,0 l/m 0 min 0 min 0 W/m 6,3 km/h (2 Bft) 95,65 %
12.10.2017 20:24 12,2 C 11,1 C 8,9 C 85 % 0 lf 1022,5 hPa 0,0 l/m 0 min 0 min 0 W/m 4,2 km/h (1 Bft) 95,74 %
12.10.2017 20:26 12,2 C 11,1 C 8,9 C 85 % 0 lf 1022,5 hPa 0,0 l/m 0 min 0 min 0 W/m 6,3 km/h (2 Bft) 95,74 %
12.10.2017 20:28 12,2 C 11,1 C 8,9 C 85 % 0 lf 1022,5 hPa 0,0 l/m 0 min 0 min 0 W/m 6,3 km/h (2 Bft) 95,74 %
12.10.2017 20:30 12,2 C 11,1 C 8,9 C 85 % 0 lf 1022,5 hPa 0,0 l/m 0 min 0 min 0 W/m 6,3 km/h (2 Bft) 91,49 %
12.10.2017 20:32 12,1 C 11,1 C 8,9 C 85 % 0 lf 1022,5 hPa 0,0 l/m 0 min 0 min 0 W/m 8,4 km/h (2 Bft) 93,62 %
12.10.2017 20:34 12,1 C 11,1 C 8,9 C 86 % 0 lf 1022,5 hPa 0,0 l/m 0 min 0 min 0 W/m 10,5 km/h (2 Bft) 97,83 %
12.10.2017 20:36 12,1 C 11,1 C 8,9 C 86 % 0 lf 1022,5 hPa 0,0 l/m 0 min 0 min 0 W/m 6,3 km/h (2 Bft) 95,74 %
12.10.2017 20:38 12,1 C 11,1 C 8,9 C 86 % 0 lf 1022,5 hPa 0,0 l/m 0 min 0 min 0 W/m 4,2 km/h (1 Bft) 97,87 %
12.10.2017 20:40 12,0 C 11,1 C 8,9 C 86 % 0 lf 1022,5 hPa 0,0 l/m 0 min 0 min 0 W/m 4,2 km/h (1 Bft) 95,74 %
12.10.2017 20:42 12,0 C 11,1 C 8,9 C 86 % 0 lf 1022,5 hPa 0,0 l/m 0 min 0 min 0 W/m 8,4 km/h (2 Bft) 97,87 %
12.10.2017 20:44 11,9 C 11,1 C 8,9 C 86 % 0 lf 1022,5 hPa 0,0 l/m 0 min 0 min 0 W/m 6,3 km/h (2 Bft) 97,87 %
12.10.2017 20:46 11,9 C 11,1 C 8,9 C 86 % 0 lf 1022,5 hPa 0,0 l/m 0 min 0 min 0 W/m 4,2 km/h (1 Bft) 97,83 %
12.10.2017 20:48 11,9 C 11,1 C 8,9 C 86 % 0 lf 1022,5 hPa 0,0 l/m 0 min 0 min 0 W/m 6,3 km/h (2 Bft) 91,49 %
12.10.2017 20:50 11,9 C 11,1 C 8,9 C 86 % 0 lf 1022,6 hPa 0,0 l/m 0 min 0 min 0 W/m 4,2 km/h (1 Bft) 100,00 %
12.10.2017 20:52 11,8 C 10,6 C 8,9 C 87 % 0 lf 1022,6 hPa 0,0 l/m 0 min 0 min 0 W/m 6,3 km/h (2 Bft) 100,00 %
12.10.2017 20:54 11,8 C 10,6 C 8,9 C 87 % 0 lf 1022,6 hPa 0,0 l/m 0 min 0 min 0 W/m 6,3 km/h (2 Bft) 100,00 %
12.10.2017 20:56 11,8 C 10,6 C 8,9 C 87 % 0 lf 1022,6 hPa 0,0 l/m 0 min 0 min 0 W/m 4,2 km/h (1 Bft) 100,00 %
12.10.2017 20:58 11,7 C 10,6 C 8,9 C 87 % 0 lf 1022,6 hPa 0,0 l/m 0 min 0 min 0 W/m 4,2 km/h (1 Bft) 97,87 %
12.10.2017 21:00 11,7 C 10,6 C 8,9 C 87 % 0 lf 1022,7 hPa 0,0 l/m 0 min 0 min 0 W/m 4,2 km/h (1 Bft) 100,00 %
12.10.2017 21:02 11,7 C 10,6 C 8,9 C 87 % 0 lf 1022,6 hPa 0,0 l/m 0 min 0 min 0 W/m 6,3 km/h (2 Bft) 97,87 %
12.10.2017 21:04 11,7 C 10,6 C 8,9 C 87 % 0 lf 1022,7 hPa 0,0 l/m 0 min 0 min 0 W/m 6,3 km/h (2 Bft) 97,87 %
12.10.2017 21:06 11,6 C 10,6 C 8,9 C 87 % 0 lf 1022,7 hPa 0,0 l/m 0 min 0 min 0 W/m 6,3 km/h (2 Bft) 95,74 %
12.10.2017 21:08 11,6 C 10,6 C 8,9 C 87 % 0 lf 1022,6 hPa 0,0 l/m 0 min 0 min 0 W/m 8,4 km/h (2 Bft) 97,83 %
12.10.2017 21:10 11,6 C 10,6 C 8,9 C 87 % 0 lf 1022,6 hPa 0,0 l/m 0 min 0 min 0 W/m 8,4 km/h (2 Bft) 100,00 %
12.10.2017 21:12 11,6 C 10,6 C 8,9 C 87 % 0 lf 1022,6 hPa 0,0 l/m 0 min 0 min 0 W/m 8,4 km/h (2 Bft) 100,00 %
12.10.2017 21:14 11,5 C 10,6 C 8,9 C 87 % 0 lf 1022,6 hPa 0,0 l/m 0 min 0 min 0 W/m 10,5 km/h (2 Bft) 100,00 %
12.10.2017 21:16 11,4 C 10,6 C 8,9 C 87 % 0 lf 1022,6 hPa 0,0 l/m 0 min 0 min 0 W/m 8,4 km/h (2 Bft) 100,00 %
12.10.2017 21:18 11,4 C 10,6 C 8,9 C 87 % 0 lf 1022,6 hPa 0,0 l/m 0 min 0 min 0 W/m 6,3 km/h (2 Bft) 100,00 %
12.10.2017 21:20 11,4 C 10,6 C 8,9 C 87 % 0 lf 1022,6 hPa 0,0 l/m 0 min 0 min 0 W/m 8,4 km/h (2 Bft) 100,00 %
12.10.2017 21:22 11,4 C 10,6 C 8,9 C 88 % 0 lf 1022,7 hPa 0,0 l/m 0 min 0 min 0 W/m 6,3 km/h (2 Bft) 97,87 %
12.10.2017 21:24 11,4 C 10,6 C 8,9 C 88 % 0 lf 1022,7 hPa 0,0 l/m 0 min 0 min 0 W/m 10,5 km/h (2 Bft) 100,00 %
12.10.2017 21:26 11,4 C 10,6 C 8,9 C 88 % 0 lf 1022,7 hPa 0,0 l/m 0 min 0 min 0 W/m 2,1 km/h (1 Bft) 100,00 %
12.10.2017 21:28 11,3 C 10,6 C 8,9 C 88 % 0 lf 1022,7 hPa 0,0 l/m 0 min 0 min 0 W/m 4,2 km/h (1 Bft) 100,00 %
12.10.2017 21:30 11,3 C 10,6 C 8,9 C 88 % 0 lf 1022,7 hPa 0,0 l/m 0 min 0 min 0 W/m 4,2 km/h (1 Bft) 97,87 %
12.10.2017 21:32 11,3 C 10,6 C 8,9 C 88 % 0 lf 1022,7 hPa 0,0 l/m 0 min 0 min 0 W/m 4,2 km/h (1 Bft) 100,00 %
12.10.2017 21:34 11,3 C 10,6 C 8,9 C 88 % 0 lf 1022,7 hPa 0,0 l/m 0 min 0 min 0 W/m 4,2 km/h (1 Bft) 100,00 %
12.10.2017 21:36 11,3 C 10,6 C 8,9 C 88 % 0 lf 1022,7 hPa 0,0 l/m 0 min 0 min 0 W/m 4,2 km/h (1 Bft) 100,00 %
12.10.2017 21:38 11,3 C 10,6 C 8,9 C 88 % 0 lf 1022,7 hPa 0,0 l/m 0 min 0 min 0 W/m 4,2 km/h (1 Bft) 93,62 %
12.10.2017 21:40 11,2 C 10,6 C 8,9 C 89 % 0 lf 1022,7 hPa 0,0 l/m 0 min 0 min 0 W/m 4,2 km/h (1 Bft) 95,74 %
12.10.2017 21:42 11,2 C 10,6 C 8,9 C 89 % 0 lf 1022,8 hPa 0,0 l/m 0 min 0 min 0 W/m 4,2 km/h (1 Bft) 95,65 %
12.10.2017 21:44 11,2 C 10,6 C 8,9 C 89 % 0 lf 1022,8 hPa 0,0 l/m 0 min 0 min 0 W/m 8,4 km/h (2 Bft) 95,74 %
12.10.2017 21:46 11,2 C 10,6 C 8,9 C 89 % 0 lf 1022,8 hPa 0,0 l/m 0 min 0 min 0 W/m 6,3 km/h (2 Bft) 93,62 %
12.10.2017 21:48 11,2 C 10,6 C 8,9 C 89 % 0 lf 1022,8 hPa 0,0 l/m 0 min 0 min 0 W/m 6,3 km/h (2 Bft) 97,87 %
12.10.2017 21:50 11,2 C 10,6 C 8,9 C 89 % 0 lf 1022,8 hPa 0,0 l/m 0 min 0 min 0 W/m 8,4 km/h (2 Bft) 97,87 %
12.10.2017 21:52 11,2 C 10,6 C 9,4 C 89 % 0 lf 1022,8 hPa 0,0 l/m 0 min 0 min 0 W/m 6,3 km/h (2 Bft) 97,87 %
12.10.2017 21:54 11,2 C 10,6 C 9,4 C 89 % 0 lf 1022,8 hPa 0,0 l/m 0 min 0 min 0 W/m 6,3 km/h (2 Bft) 95,65 %
12.10.2017 21:56 11,2 C 11,1 C 9,4 C 89 % 0 lf 1022,8 hPa 0,0 l/m 0 min 0 min 0 W/m 6,3 km/h (2 Bft) 91,49 %
12.10.2017 21:58 11,1 C 11,1 C 9,4 C 89 % 0 lf 1022,8 hPa 0,0 l/m 0 min 0 min 0 W/m 8,4 km/h (2 Bft) 95,74 %
12.10.2017 22:00 11,1 C 11,1 C 9,4 C 89 % 0 lf 1022,7 hPa 0,0 l/m 0 min 0 min 0 W/m 8,4 km/h (2 Bft) 95,74 %
12.10.2017 22:02 11,1 C 11,1 C 9,4 C 90 % 0 lf 1022,7 hPa 0,0 l/m 0 min 0 min 0 W/m 6,3 km/h (2 Bft) 93,62 %
12.10.2017 22:04 11,1 C 11,1 C 8,9 C 90 % 0 lf 1022,8 hPa 0,0 l/m 0 min 0 min 0 W/m 6,3 km/h (2 Bft) 95,74 %
12.10.2017 22:06 11,1 C 11,1 C 8,9 C 90 % 0 lf 1022,8 hPa 0,0 l/m 0 min 0 min 0 W/m 6,3 km/h (2 Bft) 95,65 %
12.10.2017 22:08 11,1 C 10,6 C 8,9 C 90 % 0 lf 1022,7 hPa 0,0 l/m 0 min 0 min 0 W/m 8,4 km/h (2 Bft) 93,62 %
12.10.2017 22:10 11,1 C 10,6 C 8,9 C 90 % 0 lf 1022,8 hPa 0,0 l/m 0 min 0 min 0 W/m 6,3 km/h (2 Bft) 95,74 %
12.10.2017 22:12 11,1 C 10,6 C 8,9 C 90 % 0 lf 1022,8 hPa 0,0 l/m 0 min 0 min 0 W/m 4,2 km/h (1 Bft) 93,62 %
12.10.2017 22:14 11,1 C 10,6 C 8,9 C 90 % 0 lf 1022,8 hPa 0,0 l/m 0 min 0 min 0 W/m 4,2 km/h (1 Bft) 95,74 %
12.10.2017 22:16 11,1 C 10,6 C 8,3 C 90 % 0 lf 1022,8 hPa 0,0 l/m 0 min 0 min 0 W/m 4,2 km/h (1 Bft) 93,62 %
12.10.2017 22:18 11,1 C 10,6 C 8,3 C 90 % 0 lf 1022,9 hPa 0,0 l/m 0 min 0 min 0 W/m 4,2 km/h (1 Bft) 93,48 %
12.10.2017 22:20 11,1 C 10,0 C 8,3 C 90 % 0 lf 1022,8 hPa 0,0 l/m 0 min 0 min 0 W/m 4,2 km/h (1 Bft) 91,49 %
12.10.2017 22:22 11,1 C 10,0 C 8,3 C 90 % 0 lf 1022,9 hPa 0,0 l/m 0 min 0 min 0 W/m 6,3 km/h (2 Bft) 93,62 %
12.10.2017 22:24 11,0 C 10,0 C 8,3 C 90 % 0 lf 1022,9 hPa 0,0 l/m 0 min 0 min 0 W/m 6,3 km/h (2 Bft) 93,62 %
12.10.2017 22:26 11,0 C 10,6 C 8,3 C 90 % 0 lf 1022,9 hPa 0,0 l/m 0 min 0 min 0 W/m 6,3 km/h (2 Bft) 97,87 %
12.10.2017 22:28 11,0 C 10,6 C 8,3 C 90 % 0 lf 1022,9 hPa 0,0 l/m 0 min 0 min 0 W/m 6,3 km/h (2 Bft) 100,00 %
12.10.2017 22:30 11,0 C 10,6 C 8,3 C 90 % 0 lf 1022,9 hPa 0,0 l/m 0 min 0 min 0 W/m 6,3 km/h (2 Bft) 95,65 %
12.10.2017 22:32 11,0 C 10,0 C 8,3 C 90 % 0 lf 1022,9 hPa 0,0 l/m 0 min 0 min 0 W/m 6,3 km/h (2 Bft) 93,62 %
12.10.2017 22:34 11,0 C 10,6 C 8,3 C 90 % 0 lf 1022,9 hPa 0,0 l/m 0 min 0 min 0 W/m 6,3 km/h (2 Bft) 97,87 %
12.10.2017 22:36 10,9 C 10,6 C 8,3 C 90 % 0 lf 1022,9 hPa 0,0 l/m 0 min 0 min 0 W/m 6,3 km/h (2 Bft) 95,74 %
12.10.2017 22:38 10,9 C 10,6 C 8,3 C 90 % 0 lf 1023,0 hPa 0,0 l/m 0 min 0 min 0 W/m 8,4 km/h (2 Bft) 97,87 %
12.10.2017 22:40 10,9 C 10,6 C 8,3 C 90 % 0 lf 1022,9 hPa 0,0 l/m 0 min 0 min 0 W/m 8,4 km/h (2 Bft) 95,74 %
12.10.2017 22:42 10,9 C 10,0 C 8,3 C 90 % 0 lf 1022,9 hPa 0,0 l/m 0 min 0 min 0 W/m 6,3 km/h (2 Bft) 97,83 %
12.10.2017 22:44 10,9 C 10,0 C 7,8 C 90 % 0 lf 1022,9 hPa 0,0 l/m 0 min 0 min 0 W/m 8,4 km/h (2 Bft) 97,87 %
12.10.2017 22:46 10,9 C 10,0 C 7,8 C 90 % 0 lf 1022,9 hPa 0,0 l/m 0 min 0 min 0 W/m 8,4 km/h (2 Bft) 97,87 %
12.10.2017 22:48 10,8 C 10,0 C 7,8 C 90 % 0 lf 1022,9 hPa 0,0 l/m 0 min 0 min 0 W/m 6,3 km/h (2 Bft) 97,87 %
12.10.2017 22:50 10,8 C 10,0 C 7,8 C 90 % 0 lf 1022,9 hPa 0,0 l/m 0 min 0 min 0 W/m 6,3 km/h (2 Bft) 97,87 %
12.10.2017 22:52 10,8 C 10,0 C 7,8 C 90 % 0 lf 1022,9 hPa 0,0 l/m 0 min 0 min 0 W/m 6,3 km/h (2 Bft) 97,87 %
12.10.2017 22:54 10,8 C 10,0 C 7,8 C 90 % 0 lf 1022,9 hPa 0,0 l/m 0 min 0 min 0 W/m 6,3 km/h (2 Bft) 100,00 %
12.10.2017 22:56 10,8 C 9,4 C 7,8 C 90 % 0 lf 1022,9 hPa 0,0 l/m 0 min 0 min 0 W/m 8,4 km/h (2 Bft) 97,87 %
12.10.2017 22:58 10,8 C 9,4 C 7,8 C 90 % 0 lf 1023,0 hPa 0,0 l/m 0 min 0 min 0 W/m 8,4 km/h (2 Bft) 97,87 %
12.10.2017 23:00 10,7 C 10,0 C 7,8 C 90 % 0 lf 1022,9 hPa 0,0 l/m 0 min 0 min 0 W/m 10,5 km/h (2 Bft) 93,62 %
12.10.2017 23:02 10,7 C 10,0 C 7,8 C 91 % 0 lf 1022,9 hPa 0,0 l/m 0 min 0 min 0 W/m 10,5 km/h (2 Bft) 97,87 %
12.10.2017 23:04 10,7 C 10,0 C 7,8 C 90 % 0 lf 1022,9 hPa 0,0 l/m 0 min 0 min 0 W/m 8,4 km/h (2 Bft) 91,30 %
12.10.2017 23:06 10,7 C 10,0 C 7,8 C 90 % 0 lf 1022,9 hPa 0,0 l/m 0 min 0 min 0 W/m 8,4 km/h (2 Bft) 93,62 %
12.10.2017 23:08 10,7 C 10,0 C 7,8 C 90 % 0 lf 1022,9 hPa 0,0 l/m 0 min 0 min 0 W/m 10,5 km/h (2 Bft) 95,74 %
12.10.2017 23:10 10,7 C 10,0 C 7,8 C 91 % 0 lf 1022,9 hPa 0,0 l/m 0 min 0 min 0 W/m 6,3 km/h (2 Bft) 93,62 %
12.10.2017 23:12 10,6 C 10,0 C 7,8 C 91 % 0 lf 1022,9 hPa 0,0 l/m 0 min 0 min 0 W/m 6,3 km/h (2 Bft) 95,74 %
12.10.2017 23:14 10,6 C 10,0 C 7,8 C 91 % 0 lf 1022,9 hPa 0,0 l/m 0 min 0 min 0 W/m 6,3 km/h (2 Bft) 93,62 %
12.10.2017 23:16 10,6 C 10,0 C 7,8 C 91 % 0 lf 1022,9 hPa 0,0 l/m 0 min 0 min 0 W/m 8,4 km/h (2 Bft) 95,65 %
12.10.2017 23:18 10,6 C 10,0 C 7,8 C 91 % 0 lf 1022,9 hPa 0,0 l/m 0 min 0 min 0 W/m 8,4 km/h (2 Bft) 95,74 %
12.10.2017 23:20 10,6 C 10,0 C 7,8 C 91 % 0 lf 1022,8 hPa 0,0 l/m 0 min 0 min 0 W/m 4,2 km/h (1 Bft) 91,49 %
12.10.2017 23:22 10,6 C 10,0 C 7,8 C 91 % 0 lf 1022,7 hPa 0,0 l/m 0 min 0 min 0 W/m 6,3 km/h (2 Bft) 95,74 %
12.10.2017 23:24 10,6 C 10,0 C 7,8 C 91 % 0 lf 1022,8 hPa 0,0 l/m 0 min 0 min 0 W/m 8,4 km/h (2 Bft) 93,62 %
12.10.2017 23:26 10,6 C 10,0 C 7,8 C 91 % 0 lf 1022,7 hPa 0,0 l/m 0 min 0 min 0 W/m 10,5 km/h (2 Bft) 95,74 %
12.10.2017 23:28 10,6 C 10,0 C 7,8 C 91 % 0 lf 1022,7 hPa 0,0 l/m 0 min 0 min 0 W/m 8,4 km/h (2 Bft) 97,83 %
12.10.2017 23:30 10,5 C 10,0 C 7,8 C 91 % 0 lf 1022,8 hPa 0,0 l/m 0 min 0 min 0 W/m 8,4 km/h (2 Bft) 95,74 %
12.10.2017 23:32 10,5 C 10,0 C 7,8 C 91 % 0 lf 1022,8 hPa 0,0 l/m 0 min 0 min 0 W/m 10,5 km/h (2 Bft) 97,87 %
12.10.2017 23:34 10,5 C 10,0 C 7,8 C 91 % 0 lf 1022,8 hPa 0,0 l/m 0 min 0 min 0 W/m 10,5 km/h (2 Bft) 97,87 %
12.10.2017 23:36 10,5 C 10,0 C 8,3 C 91 % 0 lf 1022,7 hPa 0,0 l/m 0 min 0 min 0 W/m 8,4 km/h (2 Bft) 95,74 %
12.10.2017 23:38 10,5 C 10,0 C 8,3 C 91 % 0 lf 1022,8 hPa 0,0 l/m 0 min 0 min 0 W/m 12,6 km/h (3 Bft) 97,87 %
12.10.2017 23:40 10,4 C 10,0 C 8,3 C 91 % 0 lf 1022,8 hPa 0,0 l/m 0 min 0 min 0 W/m 10,5 km/h (2 Bft) 91,30 %
12.10.2017 23:42 10,4 C 10,0 C 8,3 C 92 % 0 lf 1022,7 hPa 0,0 l/m 0 min 0 min 0 W/m 12,6 km/h (3 Bft) 95,74 %
12.10.2017 23:44 10,4 C 10,0 C 8,3 C 92 % 0 lf 1022,8 hPa 0,0 l/m 0 min 0 min 0 W/m 10,5 km/h (2 Bft) 97,87 %
12.10.2017 23:46 10,4 C 10,0 C 8,3 C 92 % 0 lf 1022,7 hPa 0,0 l/m 0 min 0 min 0 W/m 6,3 km/h (2 Bft) 95,74 %
12.10.2017 23:48 10,4 C 10,6 C 8,3 C 92 % 0 lf 1022,7 hPa 0,0 l/m 0 min 0 min 0 W/m 12,6 km/h (3 Bft) 95,74 %
12.10.2017 23:50 10,5 C 10,6 C 8,9 C 92 % 0 lf 1022,7 hPa 0,0 l/m 0 min 0 min 0 W/m 10,5 km/h (2 Bft) 95,74 %
12.10.2017 23:52 10,5 C 10,6 C 8,9 C 92 % 0 lf 1022,7 hPa 0,0 l/m 0 min 0 min 0 W/m 10,5 km/h (2 Bft) 97,83 %
12.10.2017 23:54 10,5 C 10,6 C 8,9 C 92 % 0 lf 1022,8 hPa 0,0 l/m 0 min 0 min 0 W/m 8,4 km/h (2 Bft) 95,74 %
12.10.2017 23:56 10,5 C 10,6 C 8,9 C 92 % 0 lf 1022,8 hPa 0,0 l/m 0 min 0 min 0 W/m 8,4 km/h (2 Bft) 95,74 %
12.10.2017 23:58 10,5 C 10,6 C 8,9 C 92 % 0 lf 1022,8 hPa 0,0 l/m 0 min 0 min 0 W/m 8,4 km/h (2 Bft) 95,74 %
_ Min-Zeit 23:40 22:56 22:44 16:16 00:00 02:48 - - - - 18:36 10:02
Minimum _ 10,4 C 9,4 C 7,8 C 65 % 0 lf 1012,5 hPa - - - - 0,0 km/h (0 Bft) 85,11 %
_ Max-Zeit 16:02 12:58 12:12 23:42 03:10 22:38 00:00 12:10 03:08 12:58 03:34 00:02
Maximum _ 17,4 C 23,9 C 17,2 C 92 % 15 lf 1023,0 hPa 0,0 l/m 4 min 2 min 608 W/m 50,2 km/h
SW (7 Bft)
100,00 %
Durchschnitt _ 14,5 C 15,2 C 12,8 C 82 % 0 lf 1018,6 hPa #0,0 l/m #7:50 h #42 min. 221 W/m 18,7 km/h (3 Bft) 96,54 %
© 2017 W. Hausmann